Wetterdaten: Dienstag, 25.05.2021
Datum Zeit Temp. Aussen Temp. o. S. Temp +5cm Feuchte Auss Luftdruck Regen Sonnenschein Regendauer Solar Windben Empfang
25.05.2021 00:00 10,0 C 9,4 C 7,3 C 88 % 1009,0 hPa 0,0 l/m 0 min 0 min 0 W/m 38,6 km/h (5 Bft) 97,83 %
25.05.2021 00:02 10,0 C 9,4 C 7,3 C 87 % 1008,9 hPa 0,0 l/m 0 min 0 min 0 W/m 16,1 km/h (3 Bft) 97,37 %
25.05.2021 00:04 9,9 C 9,4 C 7,3 C 87 % 1009,0 hPa 0,0 l/m 0 min 0 min 0 W/m 16,1 km/h (3 Bft) 80,85 %
25.05.2021 00:08 9,9 C 9,4 C 7,3 C 85 % 1008,9 hPa 0,0 l/m 0 min 0 min 0 W/m 16,1 km/h (3 Bft) 85,23 %
25.05.2021 00:10 9,8 C 9,4 C 7,3 C 85 % 1009,0 hPa 0,0 l/m 0 min 0 min 0 W/m 19,3 km/h (3 Bft) 97,87 %
25.05.2021 00:12 9,8 C 9,4 C 7,3 C 85 % 1008,9 hPa 0,0 l/m 0 min 0 min 0 W/m 16,1 km/h (3 Bft) 97,83 %
25.05.2021 00:14 9,8 C 8,9 C 7,3 C 85 % 1008,9 hPa 0,0 l/m 0 min 0 min 0 W/m 16,1 km/h (3 Bft) 97,87 %
25.05.2021 00:16 9,8 C 8,9 C 7,3 C 84 % 1009,0 hPa 0,0 l/m 0 min 0 min 0 W/m 22,5 km/h (4 Bft) 97,87 %
25.05.2021 00:18 9,8 C 8,9 C 7,3 C 84 % 1008,9 hPa 0,0 l/m 0 min 0 min 0 W/m 19,3 km/h (3 Bft) 97,87 %
25.05.2021 00:20 9,7 C 8,9 C 7,3 C 84 % 1008,9 hPa 0,0 l/m 0 min 0 min 0 W/m 6,4 km/h (2 Bft) 93,62 %
25.05.2021 00:22 9,6 C 8,9 C 7,3 C 84 % 1009,0 hPa 0,0 l/m 0 min 0 min 0 W/m 16,1 km/h (3 Bft) 95,74 %
25.05.2021 00:24 9,6 C 8,9 C 7,3 C 84 % 1008,9 hPa 0,0 l/m 0 min 0 min 0 W/m 12,9 km/h (3 Bft) 97,83 %
25.05.2021 00:26 9,6 C 8,9 C 7,3 C 84 % 1009,0 hPa 0,0 l/m 0 min 0 min 0 W/m 29,0 km/h (5 Bft) 97,87 %
25.05.2021 00:28 9,6 C 8,9 C 7,3 C 84 % 1009,0 hPa 0,0 l/m 0 min 0 min 0 W/m 19,3 km/h (3 Bft) 97,87 %
25.05.2021 00:30 9,5 C 8,9 C 7,3 C 84 % 1009,1 hPa 0,0 l/m 0 min 0 min 0 W/m 12,9 km/h (3 Bft) 97,87 %
25.05.2021 00:32 9,5 C 8,9 C 7,3 C 84 % 1009,0 hPa 0,0 l/m 0 min 0 min 0 W/m 12,9 km/h (3 Bft) 97,87 %
25.05.2021 00:34 9,5 C 8,9 C 7,3 C 84 % 1009,1 hPa 0,0 l/m 0 min 0 min 0 W/m 9,7 km/h (2 Bft) 97,87 %
25.05.2021 00:36 9,5 C 8,9 C 7,3 C 84 % 1009,0 hPa 0,0 l/m 0 min 0 min 0 W/m 6,4 km/h (2 Bft) 97,83 %
25.05.2021 00:38 9,5 C 8,9 C 7,3 C 85 % 1009,1 hPa 0,0 l/m 0 min 0 min 0 W/m 12,9 km/h (3 Bft) 97,87 %
25.05.2021 00:40 9,5 C 8,9 C 7,3 C 85 % 1009,1 hPa 0,0 l/m 0 min 0 min 0 W/m 9,7 km/h (2 Bft) 97,87 %
25.05.2021 00:42 9,5 C 8,9 C 7,3 C 85 % 1009,1 hPa 0,0 l/m 0 min 0 min 0 W/m 9,7 km/h (2 Bft) 97,87 %
25.05.2021 00:44 9,5 C 8,9 C 7,3 C 85 % 1009,2 hPa 0,0 l/m 0 min 0 min 0 W/m 9,7 km/h (2 Bft) 97,87 %
25.05.2021 00:46 9,5 C 8,9 C 7,3 C 84 % 1009,2 hPa 0,0 l/m 0 min 0 min 0 W/m 6,4 km/h (2 Bft) 97,87 %
25.05.2021 00:48 9,5 C 8,9 C 7,3 C 84 % 1009,1 hPa 0,0 l/m 0 min 0 min 0 W/m 3,2 km/h (1 Bft) 97,83 %
25.05.2021 00:50 9,5 C 8,9 C 7,3 C 85 % 1009,1 hPa 0,0 l/m 0 min 0 min 0 W/m 3,2 km/h (1 Bft) 97,87 %
25.05.2021 00:52 9,5 C 8,9 C 7,3 C 85 % 1009,2 hPa 0,0 l/m 0 min 0 min 0 W/m 6,4 km/h (2 Bft) 97,87 %
25.05.2021 00:54 9,5 C 8,9 C 7,3 C 85 % 1009,2 hPa 0,0 l/m 0 min 0 min 0 W/m 12,9 km/h (3 Bft) 97,87 %
25.05.2021 00:56 9,5 C 8,9 C 7,3 C 85 % 1009,2 hPa 0,0 l/m 0 min 0 min 0 W/m 9,7 km/h (2 Bft) 97,87 %
25.05.2021 00:58 9,5 C 8,9 C 7,3 C 85 % 1009,1 hPa 0,0 l/m 0 min 0 min 0 W/m 12,9 km/h (3 Bft) 97,87 %
25.05.2021 01:00 9,4 C 8,9 C 6,7 C 85 % 1009,1 hPa 0,0 l/m 0 min 0 min 0 W/m 9,7 km/h (2 Bft) 97,83 %
25.05.2021 01:02 9,4 C 8,9 C 6,7 C 85 % 1009,2 hPa 0,0 l/m 0 min 0 min 0 W/m 16,1 km/h (3 Bft) 100,00 %
25.05.2021 01:04 9,4 C 8,9 C 6,7 C 85 % 1009,2 hPa 0,0 l/m 0 min 0 min 0 W/m 19,3 km/h (3 Bft) 100,00 %
25.05.2021 01:06 9,4 C 8,9 C 6,7 C 85 % 1009,2 hPa 0,0 l/m 0 min 0 min 0 W/m 16,1 km/h (3 Bft) 100,00 %
25.05.2021 01:08 9,4 C 8,3 C 6,7 C 85 % 1009,2 hPa 0,0 l/m 0 min 0 min 0 W/m 12,9 km/h (3 Bft) 100,00 %
25.05.2021 01:10 9,4 C 8,3 C 6,7 C 86 % 1009,2 hPa 0,0 l/m 0 min 0 min 0 W/m 9,7 km/h (2 Bft) 100,00 %
25.05.2021 01:12 9,4 C 8,3 C 6,7 C 86 % 1009,3 hPa 0,0 l/m 0 min 0 min 0 W/m 9,7 km/h (2 Bft) 100,00 %
25.05.2021 01:14 9,4 C 8,9 C 6,7 C 86 % 1009,3 hPa 0,0 l/m 0 min 0 min 0 W/m 6,4 km/h (2 Bft) 100,00 %
25.05.2021 01:16 9,4 C 8,9 C 6,7 C 86 % 1009,3 hPa 0,0 l/m 0 min 0 min 0 W/m 16,1 km/h (3 Bft) 97,87 %
25.05.2021 01:18 9,4 C 8,9 C 6,7 C 86 % 1009,3 hPa 0,0 l/m 0 min 0 min 0 W/m 16,1 km/h (3 Bft) 100,00 %
25.05.2021 01:20 9,4 C 8,9 C 6,7 C 86 % 1009,3 hPa 0,0 l/m 0 min 0 min 0 W/m 16,1 km/h (3 Bft) 97,87 %
25.05.2021 01:22 9,4 C 8,9 C 6,7 C 87 % 1009,3 hPa 0,0 l/m 0 min 0 min 0 W/m 12,9 km/h (3 Bft) 100,00 %
25.05.2021 01:24 9,4 C 8,9 C 7,3 C 87 % 1009,3 hPa 0,0 l/m 0 min 0 min 0 W/m 16,1 km/h (3 Bft) 100,00 %
25.05.2021 01:26 9,4 C 8,9 C 7,3 C 87 % 1009,4 hPa 0,0 l/m 0 min 0 min 0 W/m 12,9 km/h (3 Bft) 100,00 %
25.05.2021 01:28 9,4 C 8,9 C 7,3 C 87 % 1009,3 hPa 0,0 l/m 0 min 0 min 0 W/m 12,9 km/h (3 Bft) 95,74 %
25.05.2021 01:30 9,4 C 8,9 C 7,3 C 87 % 1009,3 hPa 0,0 l/m 0 min 0 min 0 W/m 12,9 km/h (3 Bft) 97,87 %
25.05.2021 01:32 9,4 C 8,9 C 7,3 C 87 % 1009,3 hPa 0,0 l/m 0 min 0 min 0 W/m 12,9 km/h (3 Bft) 100,00 %
25.05.2021 01:34 9,4 C 8,9 C 7,3 C 87 % 1009,4 hPa 0,0 l/m 0 min 0 min 0 W/m 12,9 km/h (3 Bft) 100,00 %
25.05.2021 01:36 9,4 C 8,9 C 7,3 C 87 % 1009,4 hPa 0,0 l/m 0 min 0 min 0 W/m 12,9 km/h (3 Bft) 100,00 %
25.05.2021 01:38 9,4 C 8,9 C 7,3 C 87 % 1009,4 hPa 0,0 l/m 0 min 0 min 0 W/m 12,9 km/h (3 Bft) 95,74 %
25.05.2021 01:40 9,4 C 8,9 C 6,7 C 87 % 1009,4 hPa 0,0 l/m 0 min 0 min 0 W/m 12,9 km/h (3 Bft) 95,74 %
25.05.2021 01:42 9,4 C 8,9 C 6,7 C 87 % 1009,4 hPa 0,0 l/m 0 min 0 min 0 W/m 16,1 km/h (3 Bft) 95,74 %
25.05.2021 01:44 9,4 C 8,9 C 6,7 C 87 % 1009,4 hPa 0,0 l/m 0 min 0 min 0 W/m 16,1 km/h (3 Bft) 95,74 %
25.05.2021 01:46 9,4 C 8,3 C 6,7 C 87 % 1009,4 hPa 0,0 l/m 0 min 0 min 0 W/m 9,7 km/h (2 Bft) 95,65 %
25.05.2021 01:48 9,4 C 8,3 C 6,7 C 87 % 1009,4 hPa 0,0 l/m 0 min 0 min 0 W/m 12,9 km/h (3 Bft) 47,50 %
25.05.2021 01:50 9,4 C 8,3 C 6,7 C 87 % 1009,5 hPa 0,0 l/m 0 min 0 min 0 W/m 16,1 km/h (3 Bft) 95,74 %
25.05.2021 01:52 9,4 C 8,3 C 6,7 C 87 % 1009,4 hPa 0,0 l/m 0 min 0 min 0 W/m 12,9 km/h (3 Bft) 91,49 %
25.05.2021 01:54 9,3 C 8,3 C 6,7 C 88 % 1009,4 hPa 0,0 l/m 0 min 0 min 0 W/m 9,7 km/h (2 Bft) 95,74 %
25.05.2021 01:56 9,3 C 8,3 C 6,7 C 87 % 1009,4 hPa 0,0 l/m 0 min 0 min 0 W/m 16,1 km/h (3 Bft) 95,74 %
25.05.2021 01:58 9,3 C 8,3 C 6,7 C 87 % 1009,4 hPa 0,0 l/m 0 min 0 min 0 W/m 19,3 km/h (3 Bft) 95,65 %
25.05.2021 02:00 9,3 C 8,3 C 6,7 C 87 % 1009,5 hPa 0,0 l/m 0 min 0 min 0 W/m 16,1 km/h (3 Bft) 95,74 %
25.05.2021 02:02 9,2 C 8,3 C 6,7 C 87 % 1009,4 hPa 0,0 l/m 0 min 0 min 0 W/m 16,1 km/h (3 Bft) 95,74 %
25.05.2021 02:04 9,1 C 8,3 C 6,7 C 87 % 1009,4 hPa 0,0 l/m 0 min 0 min 0 W/m 12,9 km/h (3 Bft) 95,74 %
25.05.2021 02:06 9,1 C 8,3 C 6,7 C 87 % 1009,5 hPa 0,0 l/m 0 min 0 min 0 W/m 25,7 km/h (4 Bft) 95,74 %
25.05.2021 02:08 9,1 C 8,3 C 6,7 C 87 % 1009,5 hPa 0,0 l/m 0 min 0 min 0 W/m 22,5 km/h (4 Bft) 95,74 %
25.05.2021 02:10 9,1 C 8,3 C 6,7 C 87 % 1009,4 hPa 0,0 l/m 0 min 0 min 0 W/m 22,5 km/h (4 Bft) 93,48 %
25.05.2021 02:12 9,0 C 8,3 C 6,7 C 87 % 1009,4 hPa 0,0 l/m 0 min 0 min 0 W/m 19,3 km/h (3 Bft) 95,74 %
25.05.2021 02:14 9,0 C 8,3 C 6,7 C 87 % 1009,4 hPa 0,0 l/m 0 min 0 min 0 W/m 19,3 km/h (3 Bft) 95,74 %
25.05.2021 02:16 9,0 C 8,3 C 6,7 C 87 % 1009,4 hPa 0,0 l/m 0 min 0 min 0 W/m 16,1 km/h (3 Bft) 93,62 %
25.05.2021 02:18 9,0 C 8,3 C 6,7 C 87 % 1009,5 hPa 0,0 l/m 0 min 0 min 0 W/m 22,5 km/h (4 Bft) 95,74 %
25.05.2021 02:20 9,0 C 8,3 C 6,7 C 88 % 1009,5 hPa 0,0 l/m 0 min 0 min 0 W/m 25,7 km/h (4 Bft) 97,87 %
25.05.2021 02:22 9,0 C 8,3 C 6,7 C 88 % 1009,5 hPa 0,0 l/m 0 min 0 min 0 W/m 12,9 km/h (3 Bft) 97,83 %
25.05.2021 02:24 9,0 C 8,3 C 6,7 C 88 % 1009,4 hPa 0,0 l/m 0 min 0 min 0 W/m 12,9 km/h (3 Bft) 97,87 %
25.05.2021 02:26 9,0 C 8,3 C 6,7 C 88 % 1009,4 hPa 0,0 l/m 0 min 0 min 0 W/m 22,5 km/h (4 Bft) 97,87 %
25.05.2021 02:28 9,0 C 8,3 C 6,7 C 88 % 1009,4 hPa 0,0 l/m 0 min 0 min 0 W/m 16,1 km/h (3 Bft) 95,74 %
25.05.2021 02:30 9,0 C 8,3 C 6,7 C 88 % 1009,5 hPa 0,0 l/m 0 min 0 min 0 W/m 16,1 km/h (3 Bft) 97,87 %
25.05.2021 02:32 9,0 C 8,3 C 6,7 C 88 % 1009,5 hPa 0,0 l/m 0 min 0 min 0 W/m 16,1 km/h (3 Bft) 100,00 %
25.05.2021 02:34 9,0 C 8,3 C 6,7 C 88 % 1009,5 hPa 0,0 l/m 0 min 0 min 0 W/m 16,1 km/h (3 Bft) 100,00 %
25.05.2021 02:36 9,0 C 8,3 C 6,7 C 88 % 1009,5 hPa 0,0 l/m 0 min 0 min 0 W/m 9,7 km/h (2 Bft) 100,00 %
25.05.2021 02:38 9,0 C 8,3 C 6,7 C 88 % 1009,5 hPa 0,0 l/m 0 min 0 min 0 W/m 16,1 km/h (3 Bft) 100,00 %
25.05.2021 02:40 9,0 C 8,3 C 6,7 C 88 % 1009,5 hPa 0,0 l/m 0 min 0 min 0 W/m 9,7 km/h (2 Bft) 97,87 %
25.05.2021 02:42 9,0 C 8,3 C 6,7 C 88 % 1009,5 hPa 0,0 l/m 0 min 0 min 0 W/m 19,3 km/h (3 Bft) 100,00 %
25.05.2021 02:44 9,0 C 8,3 C 6,7 C 88 % 1009,6 hPa 0,0 l/m 0 min 0 min 0 W/m 12,9 km/h (3 Bft) 100,00 %
25.05.2021 02:46 9,0 C 8,3 C 6,7 C 88 % 1009,5 hPa 0,0 l/m 0 min 0 min 0 W/m 22,5 km/h (4 Bft) 100,00 %
25.05.2021 02:48 9,0 C 8,3 C 6,7 C 88 % 1009,5 hPa 0,0 l/m 0 min 0 min 0 W/m 19,3 km/h (3 Bft) 100,00 %
25.05.2021 02:50 9,0 C 8,3 C 6,7 C 88 % 1009,6 hPa 0,0 l/m 0 min 0 min 0 W/m 25,7 km/h (4 Bft) 100,00 %
25.05.2021 02:52 9,0 C 8,3 C 6,7 C 88 % 1009,6 hPa 0,0 l/m 0 min 0 min 0 W/m 16,1 km/h (3 Bft) 100,00 %
25.05.2021 02:54 9,0 C 8,3 C 6,7 C 88 % 1009,6 hPa 0,0 l/m 0 min 0 min 0 W/m 16,1 km/h (3 Bft) 100,00 %
25.05.2021 02:56 8,9 C 8,3 C 6,7 C 88 % 1009,6 hPa 0,0 l/m 0 min 0 min 0 W/m 22,5 km/h (4 Bft) 100,00 %
25.05.2021 02:58 8,9 C 8,3 C 6,1 C 88 % 1009,6 hPa 0,0 l/m 0 min 0 min 0 W/m 16,1 km/h (3 Bft) 97,83 %
25.05.2021 03:00 8,9 C 7,8 C 6,1 C 88 % 1009,6 hPa 0,0 l/m 0 min 0 min 0 W/m 16,1 km/h (3 Bft) 100,00 %
25.05.2021 03:02 8,9 C 7,8 C 6,1 C 88 % 1009,5 hPa 0,0 l/m 0 min 0 min 0 W/m 12,9 km/h (3 Bft) 97,87 %
25.05.2021 03:04 8,8 C 7,8 C 6,1 C 88 % 1009,7 hPa 0,0 l/m 0 min 0 min 0 W/m 25,7 km/h (4 Bft) 100,00 %
25.05.2021 03:06 8,8 C 7,8 C 6,1 C 88 % 1009,6 hPa 0,0 l/m 0 min 0 min 0 W/m 19,3 km/h (3 Bft) 100,00 %
25.05.2021 03:08 8,8 C 7,8 C 6,1 C 88 % 1009,5 hPa 0,0 l/m 0 min 0 min 0 W/m 22,5 km/h (4 Bft) 100,00 %
25.05.2021 03:10 8,8 C 7,8 C 6,1 C 88 % 1009,5 hPa 0,0 l/m 0 min 0 min 0 W/m 9,7 km/h (2 Bft) 100,00 %
25.05.2021 03:12 8,7 C 7,8 C 6,1 C 88 % 1009,5 hPa 0,0 l/m 0 min 0 min 0 W/m 22,5 km/h (4 Bft) 97,87 %
25.05.2021 03:14 8,7 C 7,8 C 6,1 C 88 % 1009,5 hPa 0,0 l/m 0 min 0 min 0 W/m 16,1 km/h (3 Bft) 100,00 %
25.05.2021 03:16 8,6 C 7,8 C 6,1 C 88 % 1009,5 hPa 0,0 l/m 0 min 0 min 0 W/m 16,1 km/h (3 Bft) 100,00 %
25.05.2021 03:18 8,6 C 7,8 C 6,1 C 88 % 1009,7 hPa 0,0 l/m 0 min 0 min 0 W/m 9,7 km/h (2 Bft) 100,00 %
25.05.2021 03:20 8,6 C 7,8 C 6,1 C 88 % 1009,7 hPa 0,0 l/m 0 min 0 min 0 W/m 12,9 km/h (3 Bft) 95,74 %
25.05.2021 03:22 8,6 C 7,8 C 6,1 C 88 % 1009,7 hPa 0,0 l/m 0 min 0 min 0 W/m 35,4 km/h (5 Bft) 97,83 %
25.05.2021 03:24 8,5 C 7,8 C 6,1 C 88 % 1009,6 hPa 0,0 l/m 0 min 0 min 0 W/m 22,5 km/h (4 Bft) 97,87 %
25.05.2021 03:26 8,5 C 7,8 C 6,1 C 88 % 1009,7 hPa 0,0 l/m 0 min 0 min 0 W/m 12,9 km/h (3 Bft) 100,00 %
25.05.2021 03:28 8,5 C 7,8 C 6,1 C 88 % 1009,7 hPa 0,0 l/m 0 min 0 min 0 W/m 19,3 km/h (3 Bft) 97,87 %
25.05.2021 03:30 8,5 C 7,8 C 6,1 C 88 % 1009,7 hPa 0,0 l/m 0 min 0 min 0 W/m 19,3 km/h (3 Bft) 100,00 %
25.05.2021 03:32 8,5 C 7,8 C 6,1 C 88 % 1009,7 hPa 0,0 l/m 0 min 0 min 0 W/m 16,1 km/h (3 Bft) 100,00 %
25.05.2021 03:34 8,5 C 7,8 C 6,1 C 88 % 1009,8 hPa 0,0 l/m 0 min 0 min 0 W/m 38,6 km/h (5 Bft) 100,00 %
25.05.2021 03:36 8,5 C 7,8 C 6,1 C 88 % 1009,8 hPa 0,0 l/m 0 min 0 min 0 W/m 16,1 km/h (3 Bft) 100,00 %
25.05.2021 03:38 8,5 C 7,8 C 6,1 C 88 % 1009,8 hPa 0,0 l/m 0 min 0 min 0 W/m 22,5 km/h (4 Bft) 100,00 %
25.05.2021 03:40 8,5 C 7,8 C 6,1 C 88 % 1009,8 hPa 0,0 l/m 0 min 0 min 0 W/m 25,7 km/h (4 Bft) 100,00 %
25.05.2021 03:42 8,4 C 7,8 C 6,1 C 88 % 1009,8 hPa 0,0 l/m 0 min 0 min 0 W/m 22,5 km/h (4 Bft) 100,00 %
25.05.2021 03:44 8,4 C 7,8 C 6,1 C 88 % 1009,8 hPa 0,0 l/m 0 min 0 min 0 W/m 22,5 km/h (4 Bft) 100,00 %
25.05.2021 03:46 8,4 C 7,8 C 6,1 C 88 % 1009,8 hPa 0,0 l/m 0 min 0 min 0 W/m 19,3 km/h (3 Bft) 97,87 %
25.05.2021 03:48 8,4 C 7,8 C 6,1 C 88 % 1009,8 hPa 0,0 l/m 0 min 0 min 0 W/m 32,2 km/h (5 Bft) 100,00 %
25.05.2021 03:50 8,4 C 7,8 C 6,1 C 88 % 1009,8 hPa 0,0 l/m 0 min 0 min 0 W/m 12,9 km/h (3 Bft) 100,00 %
25.05.2021 03:52 8,4 C 7,8 C 6,1 C 88 % 1009,8 hPa 0,0 l/m 0 min 0 min 0 W/m 25,7 km/h (4 Bft) 95,74 %
25.05.2021 03:54 8,4 C 7,8 C 6,1 C 88 % 1009,8 hPa 0,0 l/m 0 min 0 min 0 W/m 29,0 km/h (5 Bft) 97,83 %
25.05.2021 03:56 8,4 C 7,8 C 6,1 C 88 % 1009,8 hPa 0,0 l/m 0 min 0 min 0 W/m 19,3 km/h (3 Bft) 97,87 %
25.05.2021 03:58 8,4 C 7,8 C 6,1 C 88 % 1009,8 hPa 0,0 l/m 0 min 0 min 0 W/m 19,3 km/h (3 Bft) 100,00 %
25.05.2021 04:00 8,4 C 7,8 C 6,1 C 87 % 1009,8 hPa 0,0 l/m 0 min 0 min 0 W/m 16,1 km/h (3 Bft) 100,00 %
25.05.2021 04:02 8,4 C 7,8 C 6,1 C 87 % 1009,8 hPa 0,0 l/m 0 min 0 min 0 W/m 16,1 km/h (3 Bft) 100,00 %
25.05.2021 04:07 8,4 C 7,8 C 6,1 C 87 % 1009,8 hPa 0,0 l/m 0 min 0 min 0 W/m 32,2 km/h (5 Bft) 95,83 %
25.05.2021 04:08 8,4 C 7,8 C 6,1 C 87 % 1009,8 hPa 0,0 l/m 0 min 0 min 0 W/m 22,5 km/h (4 Bft) 90,91 %
25.05.2021 04:10 8,4 C 7,8 C 6,1 C 87 % 1009,7 hPa 0,0 l/m 0 min 0 min 0 W/m 25,7 km/h (4 Bft) 97,87 %
25.05.2021 04:12 8,3 C 7,8 C 6,1 C 87 % 1009,8 hPa 0,0 l/m 0 min 0 min 0 W/m 22,5 km/h (4 Bft) 97,87 %
25.05.2021 04:14 8,3 C 7,8 C 6,1 C 87 % 1009,8 hPa 0,0 l/m 0 min 0 min 0 W/m 16,1 km/h (3 Bft) 97,87 %
25.05.2021 04:16 8,3 C 7,8 C 6,1 C 87 % 1009,8 hPa 0,0 l/m 0 min 0 min 0 W/m 25,7 km/h (4 Bft) 97,87 %
25.05.2021 04:18 8,3 C 7,8 C 6,1 C 87 % 1009,8 hPa 0,0 l/m 0 min 0 min 0 W/m 16,1 km/h (3 Bft) 97,83 %
25.05.2021 04:20 8,3 C 7,2 C 6,1 C 87 % 1009,8 hPa 0,0 l/m 0 min 0 min 0 W/m 16,1 km/h (3 Bft) 97,87 %
25.05.2021 04:22 8,3 C 7,8 C 6,1 C 87 % 1009,9 hPa 0,0 l/m 0 min 0 min 0 W/m 22,5 km/h (4 Bft) 97,87 %
25.05.2021 04:24 8,3 C 7,8 C 6,1 C 87 % 1009,8 hPa 0,0 l/m 0 min 0 min 0 W/m 25,7 km/h (4 Bft) 97,87 %
25.05.2021 04:26 8,3 C 7,8 C 6,1 C 87 % 1009,9 hPa 0,0 l/m 0 min 0 min 0 W/m 25,7 km/h (4 Bft) 97,87 %
25.05.2021 04:28 8,3 C 7,8 C 5,6 C 87 % 1009,9 hPa 0,0 l/m 0 min 0 min 0 W/m 22,5 km/h (4 Bft) 95,74 %
25.05.2021 04:30 8,2 C 7,8 C 5,6 C 87 % 1009,9 hPa 0,0 l/m 0 min 0 min 0 W/m 19,3 km/h (3 Bft) 97,83 %
25.05.2021 04:32 8,2 C 7,8 C 5,6 C 87 % 1009,9 hPa 0,0 l/m 0 min 0 min 0 W/m 12,9 km/h (3 Bft) 97,87 %
25.05.2021 04:34 8,2 C 7,8 C 5,6 C 87 % 1009,9 hPa 0,0 l/m 0 min 0 min 0 W/m 19,3 km/h (3 Bft) 97,87 %
25.05.2021 04:36 8,2 C 7,8 C 5,6 C 87 % 1009,9 hPa 0,0 l/m 0 min 0 min 0 W/m 9,7 km/h (2 Bft) 97,87 %
25.05.2021 04:38 8,2 C 7,8 C 6,1 C 87 % 1009,9 hPa 0,0 l/m 0 min 0 min 0 W/m 12,9 km/h (3 Bft) 95,74 %
25.05.2021 04:40 8,2 C 7,8 C 6,1 C 87 % 1010,0 hPa 0,0 l/m 0 min 0 min 0 W/m 12,9 km/h (3 Bft) 97,83 %
25.05.2021 04:42 8,2 C 7,8 C 6,1 C 87 % 1009,9 hPa 0,0 l/m 0 min 0 min 0 W/m 12,9 km/h (3 Bft) 98,28 %
25.05.2021 04:44 8,2 C 7,8 C 6,1 C 87 % 1009,9 hPa 0,0 l/m 0 min 0 min 0 W/m 6,4 km/h (2 Bft) 94,29 %
25.05.2021 04:46 8,2 C 7,8 C 6,1 C 87 % 1009,9 hPa 0,0 l/m 0 min 0 min 0 W/m 9,7 km/h (2 Bft) 93,22 %
25.05.2021 04:48 8,2 C 7,8 C 6,1 C 87 % 1009,9 hPa 0,0 l/m 0 min 0 min 0 W/m 19,3 km/h (3 Bft) 94,29 %
25.05.2021 04:50 8,2 C 7,8 C 6,1 C 87 % 1009,9 hPa 0,0 l/m 0 min 0 min 0 W/m 16,1 km/h (3 Bft) 96,55 %
25.05.2021 04:52 8,2 C 7,8 C 6,1 C 87 % 1009,9 hPa 0,0 l/m 0 min 0 min 0 W/m 19,3 km/h (3 Bft) 83,33 %
25.05.2021 04:54 8,2 C 7,8 C 6,1 C 87 % 1009,9 hPa 0,0 l/m 0 min 0 min 0 W/m 16,1 km/h (3 Bft) 68,97 %
25.05.2021 04:56 8,3 C 7,8 C 6,1 C 87 % 1010,0 hPa 0,0 l/m 0 min 0 min 0 W/m 19,3 km/h (3 Bft) 95,74 %
25.05.2021 04:58 8,3 C 7,8 C 6,1 C 87 % 1009,9 hPa 0,0 l/m 0 min 0 min 0 W/m 22,5 km/h (4 Bft) 97,14 %
25.05.2021 05:00 8,3 C 7,8 C 6,1 C 87 % 1010,0 hPa 0,0 l/m 0 min 0 min 0 W/m 12,9 km/h (3 Bft) 95,74 %
25.05.2021 05:02 8,3 C 7,8 C 6,1 C 87 % 1010,0 hPa 0,0 l/m 0 min 0 min 0 W/m 12,9 km/h (3 Bft) 95,83 %
25.05.2021 05:04 8,3 C 7,8 C 6,1 C 87 % 1010,0 hPa 0,0 l/m 0 min 0 min 0 W/m 16,1 km/h (3 Bft) 95,65 %
25.05.2021 05:06 8,3 C 7,8 C 6,1 C 87 % 1010,1 hPa 0,0 l/m 0 min 0 min 0 W/m 22,5 km/h (4 Bft) 93,62 %
25.05.2021 05:08 8,3 C 7,8 C 6,1 C 87 % 1010,1 hPa 0,0 l/m 0 min 0 min 0 W/m 29,0 km/h (5 Bft) 95,74 %
25.05.2021 05:10 8,3 C 7,8 C 6,1 C 87 % 1010,1 hPa 0,0 l/m 0 min 0 min 0 W/m 9,7 km/h (2 Bft) 95,74 %
25.05.2021 05:12 8,3 C 7,8 C 6,1 C 87 % 1010,0 hPa 0,0 l/m 0 min 0 min 0 W/m 12,9 km/h (3 Bft) 95,74 %
25.05.2021 05:14 8,3 C 7,8 C 6,1 C 87 % 1010,1 hPa 0,0 l/m 0 min 0 min 0 W/m 19,3 km/h (3 Bft) 97,87 %
25.05.2021 05:16 8,3 C 7,8 C 6,1 C 87 % 1010,1 hPa 0,0 l/m 0 min 0 min 0 W/m 22,5 km/h (4 Bft) 95,65 %
25.05.2021 05:18 8,3 C 7,8 C 6,1 C 87 % 1010,0 hPa 0,0 l/m 0 min 0 min 0 W/m 6,4 km/h (2 Bft) 95,74 %
25.05.2021 05:20 8,3 C 7,8 C 6,1 C 88 % 1010,0 hPa 0,0 l/m 0 min 0 min 0 W/m 16,1 km/h (3 Bft) 95,74 %
25.05.2021 05:22 8,3 C 7,8 C 6,1 C 88 % 1010,0 hPa 0,0 l/m 0 min 0 min 0 W/m 16,1 km/h (3 Bft) 93,62 %
25.05.2021 05:24 8,4 C 7,8 C 6,1 C 88 % 1010,1 hPa 0,0 l/m 0 min 0 min 0 W/m 9,7 km/h (2 Bft) 95,92 %
25.05.2021 05:26 8,3 C 7,8 C 6,1 C 88 % 1010,1 hPa 0,0 l/m 0 min 0 min 0 W/m 16,1 km/h (3 Bft) 93,62 %
25.05.2021 05:28 8,4 C 7,8 C 6,1 C 88 % 1010,1 hPa 0,0 l/m 0 min 0 min 0 W/m 12,9 km/h (3 Bft) 95,74 %
25.05.2021 05:30 8,4 C 7,8 C 6,1 C 88 % 1010,1 hPa 0,0 l/m 0 min 0 min 0 W/m 22,5 km/h (4 Bft) 94,34 %
25.05.2021 05:32 8,4 C 7,8 C 6,1 C 88 % 1010,1 hPa 0,0 l/m 0 min 0 min 0 W/m 16,1 km/h (3 Bft) 95,83 %
25.05.2021 05:34 8,4 C 7,8 C 6,1 C 88 % 1010,1 hPa 0,0 l/m 0 min 0 min 0 W/m 9,7 km/h (2 Bft) 95,74 %
25.05.2021 05:36 8,4 C 7,8 C 6,1 C 88 % 1010,1 hPa 0,0 l/m 0 min 0 min 0 W/m 16,1 km/h (3 Bft) 95,74 %
25.05.2021 05:38 8,4 C 7,8 C 6,1 C 88 % 1010,1 hPa 0,0 l/m 0 min 0 min 0 W/m 9,7 km/h (2 Bft) 97,83 %
25.05.2021 05:40 8,4 C 7,8 C 6,1 C 88 % 1010,1 hPa 0,0 l/m 0 min 0 min 0 W/m 12,9 km/h (3 Bft) 97,87 %
25.05.2021 05:42 8,4 C 7,8 C 6,1 C 88 % 1010,2 hPa 0,0 l/m 0 min 0 min 0 W/m 19,3 km/h (3 Bft) 97,87 %
25.05.2021 05:44 8,4 C 7,8 C 6,1 C 88 % 1010,2 hPa 0,0 l/m 0 min 0 min 0 W/m 22,5 km/h (4 Bft) 97,87 %
25.05.2021 05:46 8,5 C 7,8 C 6,1 C 88 % 1010,2 hPa 0,0 l/m 0 min 0 min 3 W/m 19,3 km/h (3 Bft) 97,87 %
25.05.2021 05:48 8,5 C 7,8 C 6,1 C 88 % 1010,2 hPa 0,0 l/m 0 min 0 min 5 W/m 19,3 km/h (3 Bft) 97,87 %
25.05.2021 05:50 8,5 C 7,8 C 6,1 C 88 % 1010,2 hPa 0,0 l/m 0 min 0 min 6 W/m 19,3 km/h (3 Bft) 97,83 %
25.05.2021 05:52 8,5 C 7,8 C 6,1 C 88 % 1010,2 hPa 0,0 l/m 0 min 0 min 9 W/m 16,1 km/h (3 Bft) 97,87 %
25.05.2021 05:54 8,5 C 7,8 C 6,1 C 88 % 1010,2 hPa 0,0 l/m 0 min 0 min 11 W/m 12,9 km/h (3 Bft) 97,87 %
25.05.2021 05:56 8,5 C 7,8 C 6,1 C 88 % 1010,2 hPa 0,0 l/m 0 min 0 min 11 W/m 16,1 km/h (3 Bft) 97,87 %
25.05.2021 05:58 8,5 C 7,8 C 6,1 C 88 % 1010,1 hPa 0,0 l/m 0 min 0 min 12 W/m 9,7 km/h (2 Bft) 97,87 %
25.05.2021 06:00 8,5 C 7,8 C 6,1 C 88 % 1010,2 hPa 0,0 l/m 0 min 0 min 12 W/m 16,1 km/h (3 Bft) 95,65 %
25.05.2021 06:02 8,5 C 7,8 C 6,1 C 88 % 1010,1 hPa 0,0 l/m 0 min 0 min 12 W/m 12,9 km/h (3 Bft) 97,30 %
25.05.2021 06:04 8,5 C 7,8 C 6,1 C 88 % 1010,1 hPa 0,0 l/m 0 min 0 min 13 W/m 9,7 km/h (2 Bft) 95,65 %
25.05.2021 06:08 8,5 C 7,8 C 6,1 C 88 % 1010,1 hPa 0,0 l/m 0 min 0 min 13 W/m 22,5 km/h (4 Bft) 95,88 %
25.05.2021 06:10 8,5 C 7,8 C 6,1 C 88 % 1010,1 hPa 0,0 l/m 0 min 0 min 13 W/m 12,9 km/h (3 Bft) 97,87 %
25.05.2021 06:12 8,5 C 7,8 C 6,1 C 88 % 1010,1 hPa 0,0 l/m 0 min 0 min 12 W/m 22,5 km/h (4 Bft) 100,00 %
25.05.2021 06:14 8,5 C 7,8 C 6,1 C 88 % 1010,1 hPa 0,0 l/m 0 min 0 min 13 W/m 12,9 km/h (3 Bft) 97,87 %
25.05.2021 06:16 8,5 C 7,8 C 6,1 C 88 % 1010,2 hPa 0,0 l/m 0 min 0 min 18 W/m 16,1 km/h (3 Bft) 97,87 %
25.05.2021 06:18 8,5 C 7,8 C 6,1 C 88 % 1010,2 hPa 0,0 l/m 0 min 0 min 21 W/m 16,1 km/h (3 Bft) 100,00 %
25.05.2021 06:20 8,5 C 7,8 C 6,1 C 88 % 1010,2 hPa 0,0 l/m 0 min 0 min 24 W/m 12,9 km/h (3 Bft) 100,00 %
25.05.2021 06:22 8,6 C 8,3 C 6,1 C 88 % 1010,2 hPa 0,0 l/m 0 min 0 min 23 W/m 19,3 km/h (3 Bft) 97,87 %
25.05.2021 06:24 8,6 C 8,3 C 6,1 C 88 % 1010,2 hPa 0,0 l/m 0 min 0 min 23 W/m 16,1 km/h (3 Bft) 97,87 %
25.05.2021 06:26 8,6 C 8,3 C 6,7 C 88 % 1010,2 hPa 0,0 l/m 0 min 0 min 25 W/m 16,1 km/h (3 Bft) 100,00 %
25.05.2021 06:28 8,6 C 8,3 C 6,7 C 89 % 1010,2 hPa 0,0 l/m 0 min 0 min 27 W/m 19,3 km/h (3 Bft) 97,87 %
25.05.2021 06:30 8,6 C 8,3 C 6,7 C 89 % 1010,2 hPa 0,0 l/m 0 min 0 min 23 W/m 12,9 km/h (3 Bft) 97,83 %
25.05.2021 06:32 8,6 C 8,3 C 6,7 C 89 % 1010,2 hPa 0,0 l/m 0 min 0 min 19 W/m 12,9 km/h (3 Bft) 95,74 %
25.05.2021 06:34 8,6 C 8,3 C 6,7 C 89 % 1010,2 hPa 0,0 l/m 0 min 0 min 23 W/m 19,3 km/h (3 Bft) 95,74 %
25.05.2021 06:36 8,6 C 8,3 C 6,7 C 89 % 1010,3 hPa 0,0 l/m 0 min 0 min 35 W/m 16,1 km/h (3 Bft) 97,87 %
25.05.2021 06:38 8,6 C 8,3 C 6,7 C 89 % 1010,3 hPa 0,0 l/m 0 min 0 min 43 W/m 9,7 km/h (2 Bft) 97,87 %
25.05.2021 06:40 8,6 C 8,3 C 6,7 C 89 % 1010,3 hPa 0,0 l/m 0 min 0 min 47 W/m 9,7 km/h (2 Bft) 97,87 %
25.05.2021 06:42 8,7 C 8,3 C 6,7 C 89 % 1010,3 hPa 0,0 l/m 0 min 0 min 55 W/m 12,9 km/h (3 Bft) 97,83 %
25.05.2021 06:44 8,7 C 8,3 C 6,7 C 89 % 1010,3 hPa 0,0 l/m 0 min 0 min 65 W/m 22,5 km/h (4 Bft) 97,87 %
25.05.2021 06:46 8,8 C 8,3 C 6,7 C 89 % 1010,3 hPa 0,0 l/m 0 min 0 min 68 W/m 16,1 km/h (3 Bft) 95,74 %
25.05.2021 06:48 8,8 C 8,3 C 6,1 C 89 % 1010,3 hPa 0,0 l/m 0 min 2 min 73 W/m 9,7 km/h (2 Bft) 97,87 %
25.05.2021 06:50 8,8 C 8,3 C 6,1 C 89 % 1010,3 hPa 0,0 l/m 0 min 2 min 68 W/m 16,1 km/h (3 Bft) 97,87 %
25.05.2021 06:52 8,8 C 8,3 C 6,1 C 90 % 1010,3 hPa 0,0 l/m 0 min 2 min 58 W/m 12,9 km/h (3 Bft) 93,62 %
25.05.2021 06:54 8,8 C 8,3 C 6,1 C 90 % 1010,3 hPa 0,2 l/m 0 min 2 min 55 W/m 16,1 km/h (3 Bft) 97,83 %
25.05.2021 06:56 8,8 C 8,3 C 6,1 C 90 % 1010,3 hPa 0,0 l/m 0 min 2 min 56 W/m 19,3 km/h (3 Bft) 97,92 %
25.05.2021 06:58 8,8 C 7,8 C 5,6 C 91 % 1010,3 hPa 0,0 l/m 0 min 2 min 63 W/m 16,1 km/h (3 Bft) 97,87 %
25.05.2021 07:00 8,8 C 7,8 C 5,6 C 91 % 1010,3 hPa 0,0 l/m 0 min 2 min 72 W/m 22,5 km/h (4 Bft) 97,87 %
25.05.2021 07:02 8,8 C 7,8 C 5,6 C 91 % 1010,3 hPa 0,0 l/m 0 min 0 min 48 W/m 22,5 km/h (4 Bft) 97,87 %
25.05.2021 07:04 8,7 C 7,8 C 5,6 C 91 % 1010,3 hPa 0,0 l/m 0 min 2 min 27 W/m 19,3 km/h (3 Bft) 97,87 %
25.05.2021 07:06 8,7 C 7,8 C 5,6 C 91 % 1010,4 hPa 0,0 l/m 0 min 0 min 25 W/m 12,9 km/h (3 Bft) 89,36 %
25.05.2021 07:08 8,6 C 7,8 C 5,6 C 91 % 1010,4 hPa 0,0 l/m 0 min 0 min 19 W/m 19,3 km/h (3 Bft) 97,87 %
25.05.2021 07:10 8,6 C 7,8 C 5,6 C 92 % 1010,4 hPa 0,0 l/m 0 min 2 min 18 W/m 19,3 km/h (3 Bft) 91,49 %
25.05.2021 07:12 8,5 C 7,8 C 5,6 C 92 % 1010,4 hPa 0,0 l/m 0 min 2 min 17 W/m 22,5 km/h (4 Bft) 87,23 %
25.05.2021 07:14 8,5 C 7,8 C 5,6 C 92 % 1010,4 hPa 0,2 l/m 0 min 2 min 13 W/m 19,3 km/h (3 Bft) 93,48 %
25.05.2021 07:16 8,5 C 7,2 C 5,6 C 92 % 1010,4 hPa 0,0 l/m 0 min 2 min 11 W/m 22,5 km/h (4 Bft) 95,74 %
25.05.2021 07:18 8,4 C 7,2 C 5,6 C 92 % 1010,4 hPa 0,2 l/m 0 min 2 min 18 W/m 16,1 km/h (3 Bft) 100,00 %
25.05.2021 07:20 8,4 C 7,2 C 5,6 C 92 % 1010,4 hPa 0,0 l/m 0 min 2 min 29 W/m 16,1 km/h (3 Bft) 100,00 %
25.05.2021 07:22 8,4 C 7,2 C 5,6 C 92 % 1010,5 hPa 0,0 l/m 0 min 0 min 36 W/m 12,9 km/h (3 Bft) 100,00 %
25.05.2021 07:24 8,4 C 7,2 C 5,6 C 93 % 1010,4 hPa 0,0 l/m 0 min 2 min 37 W/m 16,1 km/h (3 Bft) 100,00 %
25.05.2021 07:26 8,4 C 7,8 C 5,6 C 93 % 1010,4 hPa 0,0 l/m 0 min 2 min 32 W/m 19,3 km/h (3 Bft) 100,00 %
25.05.2021 07:28 8,4 C 7,8 C 5,6 C 93 % 1010,4 hPa 0,0 l/m 0 min 2 min 29 W/m 12,9 km/h (3 Bft) 100,00 %
25.05.2021 07:30 8,4 C 7,8 C 5,6 C 93 % 1010,4 hPa 0,0 l/m 0 min 2 min 35 W/m 9,7 km/h (2 Bft) 100,00 %
25.05.2021 07:32 8,4 C 7,8 C 5,6 C 93 % 1010,5 hPa 0,0 l/m 0 min 0 min 39 W/m 19,3 km/h (3 Bft) 100,00 %
25.05.2021 07:34 8,4 C 7,8 C 5,6 C 93 % 1010,4 hPa 0,0 l/m 0 min 0 min 48 W/m 16,1 km/h (3 Bft) 97,87 %
25.05.2021 07:36 8,4 C 7,8 C 5,6 C 94 % 1010,5 hPa 0,0 l/m 0 min 0 min 71 W/m 16,1 km/h (3 Bft) 100,00 %
25.05.2021 07:38 8,4 C 7,8 C 5,6 C 94 % 1010,5 hPa 0,0 l/m 0 min 0 min 103 W/m 19,3 km/h (3 Bft) 97,83 %
25.05.2021 07:40 8,4 C 8,3 C 6,1 C 94 % 1010,5 hPa 0,0 l/m 0 min 0 min 139 W/m 9,7 km/h (2 Bft) 97,87 %
25.05.2021 07:42 8,5 C 8,3 C 6,1 C 94 % 1010,4 hPa 0,0 l/m 2 min 0 min 198 W/m 16,1 km/h (3 Bft) 100,00 %
25.05.2021 07:44 8,5 C 8,3 C 6,1 C 94 % 1010,5 hPa 0,0 l/m 2 min 2 min 224 W/m 19,3 km/h (3 Bft) 97,87 %
25.05.2021 07:46 8,6 C 8,3 C 6,1 C 94 % 1010,5 hPa 0,0 l/m 2 min 2 min 192 W/m 19,3 km/h (3 Bft) 97,87 %
25.05.2021 07:48 8,6 C 8,3 C 6,1 C 94 % 1010,5 hPa 0,0 l/m 0 min 2 min 121 W/m 16,1 km/h (3 Bft) 97,83 %
25.05.2021 07:50 8,7 C 8,3 C 6,1 C 95 % 1010,5 hPa 0,0 l/m 0 min 2 min 82 W/m 12,9 km/h (3 Bft) 95,74 %
25.05.2021 07:52 8,7 C 8,3 C 6,1 C 95 % 1010,5 hPa 0,0 l/m 0 min 2 min 71 W/m 19,3 km/h (3 Bft) 95,74 %
25.05.2021 07:54 8,8 C 8,3 C 6,1 C 95 % 1010,5 hPa 0,2 l/m 0 min 2 min 73 W/m 19,3 km/h (3 Bft) 97,87 %
25.05.2021 07:56 8,8 C 8,3 C 6,1 C 95 % 1010,5 hPa 0,0 l/m 0 min 2 min 89 W/m 16,1 km/h (3 Bft) 91,49 %
25.05.2021 07:58 8,7 C 8,3 C 6,1 C 95 % 1010,6 hPa 0,0 l/m 0 min 2 min 96 W/m 25,7 km/h (4 Bft) 97,87 %
25.05.2021 08:00 8,7 C 8,3 C 6,1 C 95 % 1010,6 hPa 0,0 l/m 0 min 2 min 76 W/m 19,3 km/h (3 Bft) 72,34 %
25.05.2021 08:02 8,6 C 7,8 C 5,6 C 94 % 1010,7 hPa 0,2 l/m 0 min 2 min 46 W/m 25,7 km/h (4 Bft) 76,47 %
25.05.2021 08:04 8,6 C 7,2 C 5,6 C 94 % 1010,6 hPa 0,2 l/m 0 min 2 min 24 W/m 22,5 km/h (4 Bft) 97,87 %
25.05.2021 08:06 8,5 C 7,2 C 5,6 C 94 % 1010,6 hPa 0,0 l/m 0 min 2 min 19 W/m 22,5 km/h (4 Bft) 97,87 %
25.05.2021 08:08 8,5 C 7,2 C 5,6 C 94 % 1010,6 hPa 0,0 l/m 0 min 2 min 16 W/m 19,3 km/h (3 Bft) 97,87 %
25.05.2021 08:10 8,5 C 7,2 C 5,6 C 94 % 1010,6 hPa 0,2 l/m 0 min 2 min 13 W/m 12,9 km/h (3 Bft) 97,87 %
25.05.2021 08:12 8,5 C 7,2 C 5,6 C 94 % 1010,6 hPa 0,0 l/m 0 min 2 min 15 W/m 9,7 km/h (2 Bft) 97,83 %
25.05.2021 08:14 8,5 C 7,2 C 5,6 C 94 % 1010,7 hPa 0,2 l/m 0 min 2 min 17 W/m 3,2 km/h (1 Bft) 95,74 %
25.05.2021 08:16 8,4 C 7,2 C 5,6 C 94 % 1010,6 hPa 0,0 l/m 0 min 2 min 27 W/m 6,4 km/h (2 Bft) 97,87 %
25.05.2021 08:18 8,4 C 7,2 C 5,6 C 95 % 1010,7 hPa 0,0 l/m 0 min 2 min 47 W/m 12,9 km/h (3 Bft) 97,87 %
25.05.2021 08:20 8,4 C 7,2 C 5,6 C 95 % 1010,7 hPa 0,0 l/m 0 min 2 min 74 W/m 12,9 km/h (3 Bft) 97,87 %
25.05.2021 08:22 8,3 C 7,2 C 5,6 C 95 % 1010,7 hPa 0,0 l/m 0 min 2 min 58 W/m 29,0 km/h (5 Bft) 97,87 %
25.05.2021 08:24 8,3 C 7,2 C 5,6 C 94 % 1010,7 hPa 0,0 l/m 0 min 2 min 52 W/m 9,7 km/h (2 Bft) 97,87 %
25.05.2021 08:26 8,3 C 7,2 C 5,6 C 95 % 1010,6 hPa 0,0 l/m 0 min 2 min 56 W/m 25,7 km/h (4 Bft) 97,83 %
25.05.2021 08:28 8,3 C 7,2 C 5,6 C 95 % 1010,6 hPa 0,2 l/m 0 min 2 min 52 W/m 19,3 km/h (3 Bft) 97,87 %
25.05.2021 08:30 8,3 C 7,8 C 6,1 C 95 % 1010,6 hPa 0,0 l/m 0 min 2 min 67 W/m 16,1 km/h (3 Bft) 95,74 %
25.05.2021 08:32 8,3 C 7,8 C 6,1 C 95 % 1010,6 hPa 0,0 l/m 0 min 2 min 101 W/m 12,9 km/h (3 Bft) 97,87 %
25.05.2021 08:34 8,3 C 7,8 C 6,1 C 95 % 1010,6 hPa 0,0 l/m 0 min 2 min 142 W/m 16,1 km/h (3 Bft) 100,00 %
25.05.2021 08:36 8,3 C 7,8 C 6,1 C 95 % 1010,6 hPa 0,0 l/m 0 min 2 min 156 W/m 19,3 km/h (3 Bft) 100,00 %
25.05.2021 08:38 8,4 C 8,3 C 6,1 C 95 % 1010,6 hPa 0,0 l/m 0 min 2 min 159 W/m 12,9 km/h (3 Bft) 100,00 %
25.05.2021 08:40 8,4 C 8,3 C 6,1 C 95 % 1010,7 hPa 0,0 l/m 0 min 2 min 151 W/m 32,2 km/h (5 Bft) 97,87 %
25.05.2021 08:42 8,4 C 7,8 C 6,1 C 95 % 1010,6 hPa 0,0 l/m 0 min 2 min 115 W/m 22,5 km/h (4 Bft) 97,87 %
25.05.2021 08:44 8,4 C 7,8 C 6,1 C 95 % 1010,6 hPa 0,0 l/m 0 min 2 min 80 W/m 22,5 km/h (4 Bft) 100,00 %
25.05.2021 08:46 8,4 C 7,8 C 6,1 C 95 % 1010,7 hPa 0,0 l/m 0 min 2 min 53 W/m 19,3 km/h (3 Bft) 100,00 %
25.05.2021 08:51 8,4 C 7,8 C 6,1 C 95 % 1010,8 hPa 0,0 l/m 0 min 5 min 54 W/m 29,0 km/h (5 Bft) 98,21 %
25.05.2021 08:52 8,3 C 7,8 C 6,1 C 95 % 1010,8 hPa 0,0 l/m 0 min 1 min 51 W/m 6,4 km/h (2 Bft) 100,00 %
25.05.2021 08:54 8,3 C 7,8 C 6,1 C 95 % 1010,8 hPa 0,0 l/m 0 min 2 min 59 W/m 22,5 km/h (4 Bft) 100,00 %
25.05.2021 08:56 8,3 C 7,8 C 5,6 C 95 % 1010,8 hPa 0,0 l/m 0 min 2 min 66 W/m 32,2 km/h (5 Bft) 100,00 %
25.05.2021 08:58 8,3 C 7,8 C 5,6 C 95 % 1010,9 hPa 0,0 l/m 0 min 2 min 64 W/m 16,1 km/h (3 Bft) 97,87 %
25.05.2021 09:00 8,3 C 7,8 C 6,1 C 95 % 1010,9 hPa 0,0 l/m 0 min 0 min 78 W/m 12,9 km/h (3 Bft) 97,83 %
25.05.2021 09:02 8,4 C 7,8 C 6,1 C 95 % 1011,1 hPa 0,0 l/m 0 min 0 min 92 W/m 19,3 km/h (3 Bft) 97,92 %
25.05.2021 09:04 8,4 C 7,8 C 6,1 C 95 % 1011,0 hPa 0,0 l/m 0 min 0 min 96 W/m 16,1 km/h (3 Bft) 97,87 %
25.05.2021 09:06 8,4 C 8,3 C 6,1 C 95 % 1011,0 hPa 0,0 l/m 0 min 0 min 122 W/m 9,7 km/h (2 Bft) 95,74 %
25.05.2021 09:08 8,5 C 8,3 C 6,1 C 95 % 1011,1 hPa 0,0 l/m 0 min 0 min 159 W/m 16,1 km/h (3 Bft) 97,87 %
25.05.2021 09:10 8,5 C 8,3 C 6,7 C 95 % 1011,1 hPa 0,0 l/m 2 min 0 min 256 W/m 12,9 km/h (3 Bft) 97,87 %
25.05.2021 09:12 8,6 C 9,4 C 6,7 C 95 % 1011,1 hPa 0,0 l/m 2 min 0 min 313 W/m 16,1 km/h (3 Bft) 97,83 %
25.05.2021 09:14 8,7 C 9,4 C 7,3 C 95 % 1011,1 hPa 0,0 l/m 0 min 0 min 240 W/m 6,4 km/h (2 Bft) 97,87 %
25.05.2021 09:16 8,8 C 9,4 C 6,7 C 95 % 1011,1 hPa 0,0 l/m 0 min 0 min 175 W/m 12,9 km/h (3 Bft) 95,74 %
25.05.2021 09:18 8,9 C 9,4 C 6,7 C 95 % 1011,1 hPa 0,0 l/m 0 min 0 min 164 W/m 6,4 km/h (2 Bft) 97,87 %
25.05.2021 09:20 8,9 C 9,4 C 6,7 C 95 % 1011,1 hPa 0,0 l/m 0 min 0 min 171 W/m 12,9 km/h (3 Bft) 97,87 %
25.05.2021 09:22 9,0 C 9,4 C 7,3 C 95 % 1011,1 hPa 0,0 l/m 0 min 0 min 210 W/m 12,9 km/h (3 Bft) 97,87 %
25.05.2021 09:24 9,0 C 9,4 C 7,3 C 95 % 1011,1 hPa 0,0 l/m 0 min 0 min 210 W/m 6,4 km/h (2 Bft) 95,65 %
25.05.2021 09:26 9,0 C 9,4 C 6,7 C 95 % 1011,1 hPa 0,0 l/m 2 min 0 min 274 W/m 19,3 km/h (3 Bft) 95,74 %
25.05.2021 09:28 9,0 C 9,4 C 7,3 C 94 % 1011,1 hPa 0,0 l/m 2 min 0 min 301 W/m 12,9 km/h (3 Bft) 97,87 %
25.05.2021 09:30 9,1 C 9,4 C 7,3 C 95 % 1011,1 hPa 0,0 l/m 0 min 0 min 195 W/m 16,1 km/h (3 Bft) 100,00 %
25.05.2021 09:32 9,2 C 9,4 C 7,3 C 95 % 1011,1 hPa 0,0 l/m 0 min 0 min 211 W/m 12,9 km/h (3 Bft) 95,83 %
25.05.2021 09:34 9,3 C 9,4 C 7,3 C 94 % 1011,2 hPa 0,0 l/m 0 min 0 min 247 W/m 12,9 km/h (3 Bft) 61,70 %
25.05.2021 09:36 9,3 C 9,4 C 7,3 C 94 % 1011,2 hPa 0,0 l/m 0 min 0 min 242 W/m 12,9 km/h (3 Bft) 88,37 %
25.05.2021 09:38 9,4 C 10,0 C 7,3 C 94 % 1011,2 hPa 0,0 l/m 0 min 0 min 246 W/m 19,3 km/h (3 Bft) 97,87 %
25.05.2021 09:40 9,4 C 9,4 C 7,3 C 94 % 1011,2 hPa 0,0 l/m 0 min 0 min 264 W/m 19,3 km/h (3 Bft) 95,74 %
25.05.2021 09:42 9,5 C 10,0 C 7,3 C 93 % 1011,2 hPa 0,0 l/m 2 min 0 min 289 W/m 12,9 km/h (3 Bft) 100,00 %
25.05.2021 09:44 9,5 C 10,0 C 7,3 C 93 % 1011,2 hPa 0,0 l/m 0 min 0 min 239 W/m 12,9 km/h (3 Bft) 100,00 %
25.05.2021 09:46 9,5 C 10,0 C 7,3 C 93 % 1011,4 hPa 0,0 l/m 0 min 0 min 170 W/m 12,9 km/h (3 Bft) 95,65 %
25.05.2021 09:48 9,6 C 9,4 C 7,3 C 93 % 1011,4 hPa 0,0 l/m 0 min 0 min 144 W/m 22,5 km/h (4 Bft) 95,74 %
25.05.2021 09:50 9,6 C 9,4 C 7,3 C 92 % 1011,4 hPa 0,0 l/m 0 min 0 min 133 W/m 12,9 km/h (3 Bft) 97,87 %
25.05.2021 09:52 9,6 C 9,4 C 7,3 C 92 % 1011,4 hPa 0,0 l/m 0 min 0 min 165 W/m 12,9 km/h (3 Bft) 97,87 %
25.05.2021 09:54 9,7 C 9,4 C 7,3 C 92 % 1011,4 hPa 0,0 l/m 0 min 0 min 164 W/m 12,9 km/h (3 Bft) 97,87 %
25.05.2021 09:56 9,7 C 10,0 C 7,3 C 92 % 1011,5 hPa 0,0 l/m 0 min 0 min 174 W/m 16,1 km/h (3 Bft) 97,87 %
25.05.2021 09:58 9,7 C 10,0 C 7,3 C 92 % 1011,6 hPa 0,0 l/m 0 min 0 min 261 W/m 22,5 km/h (4 Bft) 97,83 %
25.05.2021 10:00 9,7 C 10,0 C 7,3 C 91 % 1011,6 hPa 0,0 l/m 0 min 0 min 240 W/m 22,5 km/h (4 Bft) 97,87 %
25.05.2021 10:02 9,8 C 10,0 C 7,3 C 91 % 1011,6 hPa 0,0 l/m 0 min 0 min 180 W/m 12,9 km/h (3 Bft) 100,00 %
25.05.2021 10:04 9,8 C 10,0 C 7,3 C 91 % 1011,6 hPa 0,0 l/m 0 min 0 min 188 W/m 9,7 km/h (2 Bft) 97,87 %
25.05.2021 10:06 9,8 C 10,0 C 7,3 C 91 % 1011,7 hPa 0,0 l/m 0 min 0 min 284 W/m 25,7 km/h (4 Bft) 93,62 %
25.05.2021 10:08 9,8 C 10,0 C 7,3 C 91 % 1011,7 hPa 0,0 l/m 2 min 0 min 324 W/m 16,1 km/h (3 Bft) 97,87 %
25.05.2021 10:10 9,9 C 10,6 C 7,8 C 91 % 1011,7 hPa 0,0 l/m 2 min 0 min 323 W/m 16,1 km/h (3 Bft) 97,83 %
25.05.2021 10:12 10,0 C 10,6 C 7,8 C 91 % 1011,7 hPa 0,0 l/m 2 min 0 min 329 W/m 25,7 km/h (4 Bft) 97,87 %
25.05.2021 10:14 10,0 C 10,6 C 7,8 C 91 % 1011,9 hPa 0,0 l/m 0 min 0 min 303 W/m 25,7 km/h (4 Bft) 97,87 %
25.05.2021 10:16 10,0 C 10,6 C 8,4 C 91 % 1011,8 hPa 0,0 l/m 0 min 0 min 311 W/m 16,1 km/h (3 Bft) 97,87 %
25.05.2021 10:18 10,1 C 11,7 C 8,9 C 91 % 1011,8 hPa 0,0 l/m 2 min 0 min 495 W/m 16,1 km/h (3 Bft) 97,87 %
25.05.2021 10:20 10,2 C 11,7 C 8,4 C 91 % 1011,8 hPa 0,0 l/m 2 min 0 min 398 W/m 19,3 km/h (3 Bft) 97,87 %
25.05.2021 10:22 10,3 C 11,7 C 8,4 C 91 % 1011,8 hPa 0,0 l/m 0 min 0 min 294 W/m 16,1 km/h (3 Bft) 97,83 %
25.05.2021 10:24 10,3 C 11,1 C 8,4 C 90 % 1011,8 hPa 0,0 l/m 0 min 0 min 309 W/m 9,7 km/h (2 Bft) 97,87 %
25.05.2021 10:26 10,4 C 11,1 C 8,4 C 90 % 1011,8 hPa 0,0 l/m 0 min 0 min 282 W/m 12,9 km/h (3 Bft) 95,74 %
25.05.2021 10:28 10,5 C 11,1 C 8,4 C 91 % 1011,9 hPa 0,0 l/m 0 min 0 min 275 W/m 16,1 km/h (3 Bft) 97,87 %
25.05.2021 10:30 10,5 C 11,1 C 8,4 C 90 % 1011,9 hPa 0,0 l/m 0 min 0 min 227 W/m 12,9 km/h (3 Bft) 95,74 %
25.05.2021 10:32 10,5 C 11,1 C 8,4 C 90 % 1012,0 hPa 0,0 l/m 0 min 0 min 242 W/m 9,7 km/h (2 Bft) 97,87 %
25.05.2021 10:34 10,5 C 11,1 C 8,4 C 90 % 1012,0 hPa 0,0 l/m 0 min 0 min 317 W/m 16,1 km/h (3 Bft) 95,65 %
25.05.2021 10:36 10,5 C 11,1 C 8,4 C 90 % 1012,0 hPa 0,0 l/m 0 min 0 min 258 W/m 12,9 km/h (3 Bft) 95,74 %
25.05.2021 10:38 10,5 C 10,6 C 7,8 C 90 % 1012,1 hPa 0,0 l/m 0 min 0 min 155 W/m 12,9 km/h (3 Bft) 93,62 %
25.05.2021 10:40 10,4 C 10,6 C 7,8 C 89 % 1012,1 hPa 0,0 l/m 0 min 0 min 211 W/m 16,1 km/h (3 Bft) 95,74 %
25.05.2021 10:42 10,4 C 10,6 C 7,8 C 89 % 1012,1 hPa 0,0 l/m 0 min 0 min 212 W/m 12,9 km/h (3 Bft) 93,62 %
25.05.2021 10:44 10,4 C 10,6 C 7,8 C 89 % 1012,1 hPa 0,0 l/m 0 min 0 min 210 W/m 19,3 km/h (3 Bft) 95,74 %
25.05.2021 10:46 10,4 C 10,6 C 7,8 C 89 % 1012,1 hPa 0,0 l/m 0 min 0 min 278 W/m 12,9 km/h (3 Bft) 95,65 %
25.05.2021 10:48 10,4 C 11,1 C 8,4 C 90 % 1012,1 hPa 0,0 l/m 2 min 0 min 399 W/m 12,9 km/h (3 Bft) 95,74 %
25.05.2021 10:50 10,5 C 11,7 C 8,9 C 90 % 1012,1 hPa 0,0 l/m 2 min 0 min 454 W/m 16,1 km/h (3 Bft) 91,49 %
25.05.2021 10:52 10,7 C 12,2 C 9,5 C 90 % 1012,2 hPa 0,0 l/m 2 min 0 min 436 W/m 12,9 km/h (3 Bft) 95,92 %
25.05.2021 10:54 10,9 C 12,2 C 8,9 C 90 % 1012,2 hPa 0,0 l/m 2 min 0 min 383 W/m 12,9 km/h (3 Bft) 94,29 %
25.05.2021 10:56 11,0 C 12,2 C 8,9 C 90 % 1012,2 hPa 0,0 l/m 0 min 0 min 347 W/m 12,9 km/h (3 Bft) 96,30 %
25.05.2021 10:58 11,1 C 12,2 C 8,9 C 90 % 1012,2 hPa 0,0 l/m 2 min 0 min 398 W/m 25,7 km/h (4 Bft) 95,65 %
25.05.2021 11:00 11,1 C 12,2 C 8,9 C 89 % 1012,2 hPa 0,0 l/m 2 min 0 min 384 W/m 16,1 km/h (3 Bft) 95,74 %
25.05.2021 11:02 11,1 C 11,7 C 8,9 C 88 % 1012,2 hPa 0,0 l/m 0 min 0 min 306 W/m 16,1 km/h (3 Bft) 93,62 %
25.05.2021 11:04 11,1 C 11,7 C 8,4 C 88 % 1012,2 hPa 0,0 l/m 0 min 0 min 266 W/m 16,1 km/h (3 Bft) 95,74 %
25.05.2021 11:06 11,0 C 11,1 C 8,4 C 88 % 1012,2 hPa 0,0 l/m 0 min 0 min 254 W/m 12,9 km/h (3 Bft) 97,87 %
25.05.2021 11:08 11,0 C 11,1 C 8,4 C 88 % 1012,2 hPa 0,0 l/m 0 min 0 min 187 W/m 9,7 km/h (2 Bft) 95,74 %
25.05.2021 11:10 11,0 C 11,1 C 8,4 C 88 % 1012,2 hPa 0,0 l/m 0 min 0 min 168 W/m 16,1 km/h (3 Bft) 95,74 %
25.05.2021 11:12 11,1 C 11,1 C 8,4 C 88 % 1012,1 hPa 0,0 l/m 0 min 0 min 146 W/m 19,3 km/h (3 Bft) 97,83 %
25.05.2021 11:14 11,1 C 11,1 C 8,4 C 88 % 1012,2 hPa 0,0 l/m 0 min 2 min 117 W/m 12,9 km/h (3 Bft) 97,87 %
25.05.2021 11:16 11,1 C 11,1 C 8,4 C 88 % 1012,2 hPa 0,0 l/m 0 min 2 min 137 W/m 19,3 km/h (3 Bft) 97,87 %
25.05.2021 11:18 11,1 C 11,7 C 8,4 C 88 % 1012,2 hPa 0,0 l/m 0 min 2 min 206 W/m 12,9 km/h (3 Bft) 100,00 %
25.05.2021 11:20 11,3 C 12,8 C 9,5 C 89 % 1012,2 hPa 0,0 l/m 0 min 2 min 209 W/m 9,7 km/h (2 Bft) 100,00 %
25.05.2021 11:22 11,4 C 13,3 C 9,5 C 89 % 1012,1 hPa 0,0 l/m 0 min 0 min 209 W/m 12,9 km/h (3 Bft) 97,83 %
25.05.2021 11:24 11,6 C 13,3 C 9,5 C 89 % 1012,1 hPa 0,0 l/m 0 min 0 min 209 W/m 16,1 km/h (3 Bft) 97,87 %
25.05.2021 11:26 11,7 C 13,9 C 10,0 C 89 % 1012,1 hPa 0,0 l/m 0 min 0 min 209 W/m 16,1 km/h (3 Bft) 100,00 %
25.05.2021 11:28 11,8 C 13,3 C 9,5 C 88 % 1012,1 hPa 0,0 l/m 0 min 2 min 224 W/m 9,7 km/h (2 Bft) 97,87 %
25.05.2021 11:30 11,9 C 12,8 C 8,9 C 88 % 1012,2 hPa 0,2 l/m 0 min 2 min 169 W/m 12,9 km/h (3 Bft) 100,00 %
25.05.2021 11:32 11,9 C 12,2 C 8,9 C 88 % 1012,2 hPa 0,0 l/m 0 min 2 min 84 W/m 16,1 km/h (3 Bft) 97,92 %
25.05.2021 11:34 11,9 C 11,7 C 8,4 C 88 % 1012,2 hPa 0,0 l/m 0 min 2 min 126 W/m 6,4 km/h (2 Bft) 100,00 %
25.05.2021 11:36 11,8 C 11,1 C 8,4 C 88 % 1012,4 hPa 0,0 l/m 0 min 2 min 114 W/m 16,1 km/h (3 Bft) 97,87 %
25.05.2021 11:38 11,6 C 11,1 C 8,4 C 88 % 1012,3 hPa 0,0 l/m 0 min 2 min 133 W/m 19,3 km/h (3 Bft) 93,75 %
25.05.2021 11:40 11,5 C 10,6 C 8,4 C 88 % 1012,4 hPa 0,0 l/m 0 min 2 min 146 W/m 19,3 km/h (3 Bft) 100,00 %
25.05.2021 11:42 11,3 C 10,6 C 8,4 C 88 % 1012,4 hPa 0,0 l/m 0 min 2 min 176 W/m 29,0 km/h (5 Bft) 100,00 %
25.05.2021 11:44 11,2 C 10,6 C 7,8 C 88 % 1012,4 hPa 0,0 l/m 0 min 2 min 182 W/m 16,1 km/h (3 Bft) 100,00 %
25.05.2021 11:46 11,2 C 10,6 C 8,4 C 89 % 1012,5 hPa 0,0 l/m 0 min 0 min 164 W/m 6,4 km/h (2 Bft) 95,65 %
25.05.2021 11:48 11,1 C 10,6 C 8,4 C 89 % 1012,5 hPa 0,0 l/m 0 min 0 min 139 W/m 19,3 km/h (3 Bft) 97,87 %
25.05.2021 11:50 11,1 C 10,6 C 7,8 C 89 % 1012,5 hPa 0,0 l/m 0 min 0 min 117 W/m 19,3 km/h (3 Bft) 100,00 %
25.05.2021 11:52 11,1 C 10,6 C 7,8 C 88 % 1012,6 hPa 0,0 l/m 0 min 2 min 124 W/m 22,5 km/h (4 Bft) 100,00 %
25.05.2021 11:54 11,0 C 10,6 C 7,8 C 88 % 1012,6 hPa 0,0 l/m 0 min 2 min 159 W/m 19,3 km/h (3 Bft) 97,87 %
25.05.2021 11:56 11,1 C 10,6 C 7,8 C 88 % 1012,6 hPa 0,0 l/m 0 min 2 min 157 W/m 19,3 km/h (3 Bft) 100,00 %
25.05.2021 11:58 11,1 C 10,6 C 7,8 C 88 % 1012,6 hPa 0,0 l/m 0 min 0 min 171 W/m 19,3 km/h (3 Bft) 100,00 %
25.05.2021 12:00 11,1 C 11,1 C 8,4 C 88 % 1012,5 hPa 0,0 l/m 0 min 0 min 227 W/m 16,1 km/h (3 Bft) 100,00 %
25.05.2021 12:02 11,2 C 11,1 C 8,4 C 88 % 1012,7 hPa 0,0 l/m 0 min 0 min 298 W/m 12,9 km/h (3 Bft) 97,87 %
25.05.2021 12:04 11,3 C 11,1 C 8,4 C 88 % 1012,6 hPa 0,0 l/m 0 min 0 min 262 W/m 22,5 km/h (4 Bft) 97,87 %
25.05.2021 12:08 11,4 C 12,2 C 10,0 C 88 % 1012,7 hPa 0,0 l/m 4 min 0 min 442 W/m 22,5 km/h (4 Bft) 97,87 %
25.05.2021 12:10 11,6 C 12,8 C 10,6 C 88 % 1012,7 hPa 0,0 l/m 2 min 0 min 769 W/m 25,7 km/h (4 Bft) 97,83 %
25.05.2021 12:12 11,7 C 12,8 C 10,0 C 87 % 1012,7 hPa 0,0 l/m 2 min 0 min 691 W/m 22,5 km/h (4 Bft) 97,87 %
25.05.2021 12:14 11,8 C 12,8 C 10,6 C 87 % 1012,8 hPa 0,0 l/m 2 min 0 min 510 W/m 16,1 km/h (3 Bft) 97,87 %
25.05.2021 12:16 11,9 C 12,8 C 10,0 C 87 % 1012,8 hPa 0,0 l/m 2 min 0 min 434 W/m 22,5 km/h (4 Bft) 97,87 %
25.05.2021 12:18 12,0 C 12,2 C 9,5 C 87 % 1012,8 hPa 0,0 l/m 0 min 0 min 246 W/m 19,3 km/h (3 Bft) 97,87 %
25.05.2021 12:20 11,9 C 11,7 C 8,9 C 87 % 1012,9 hPa 0,0 l/m 0 min 0 min 218 W/m 25,7 km/h (4 Bft) 97,83 %
25.05.2021 12:22 11,9 C 11,7 C 8,9 C 87 % 1012,9 hPa 0,0 l/m 0 min 0 min 304 W/m 41,8 km/h (6 Bft) 97,87 %
25.05.2021 12:24 11,8 C 11,7 C 8,9 C 87 % 1012,9 hPa 0,0 l/m 0 min 0 min 326 W/m 25,7 km/h (4 Bft) 95,74 %
25.05.2021 12:26 11,8 C 11,7 C 8,9 C 87 % 1012,8 hPa 0,0 l/m 0 min 0 min 328 W/m 12,9 km/h (3 Bft) 95,74 %
25.05.2021 12:28 11,8 C 12,2 C 9,5 C 88 % 1012,8 hPa 0,0 l/m 2 min 0 min 435 W/m 19,3 km/h (3 Bft) 97,87 %
25.05.2021 12:30 11,9 C 12,8 C 10,0 C 88 % 1012,9 hPa 0,0 l/m 2 min 0 min 567 W/m 19,3 km/h (3 Bft) 97,87 %
25.05.2021 12:32 11,9 C 12,2 C 9,5 C 87 % 1012,8 hPa 0,0 l/m 0 min 0 min 370 W/m 22,5 km/h (4 Bft) 95,65 %
25.05.2021 12:34 11,9 C 12,2 C 9,5 C 87 % 1012,9 hPa 0,0 l/m 0 min 0 min 204 W/m 16,1 km/h (3 Bft) 97,87 %
25.05.2021 12:36 11,8 C 11,7 C 8,9 C 87 % 1013,2 hPa 0,0 l/m 0 min 0 min 92 W/m 25,7 km/h (4 Bft) 97,87 %
25.05.2021 12:38 11,6 C 11,1 C 8,4 C 86 % 1013,1 hPa 0,0 l/m 0 min 2 min 63 W/m 25,7 km/h (4 Bft) 97,87 %
25.05.2021 12:40 11,4 C 10,6 C 7,8 C 86 % 1013,1 hPa 0,0 l/m 0 min 2 min 119 W/m 29,0 km/h (5 Bft) 97,87 %
25.05.2021 12:42 11,1 C 10,0 C 7,8 C 87 % 1013,2 hPa 0,0 l/m 0 min 2 min 177 W/m 19,3 km/h (3 Bft) 95,74 %
25.05.2021 12:44 11,0 C 10,0 C 7,8 C 88 % 1013,3 hPa 0,0 l/m 0 min 2 min 196 W/m 22,5 km/h (4 Bft) 97,83 %
25.05.2021 12:46 10,8 C 10,0 C 7,8 C 88 % 1013,3 hPa 0,2 l/m 0 min 2 min 173 W/m 25,7 km/h (4 Bft) 97,87 %
25.05.2021 12:48 10,6 C 9,4 C 7,3 C 89 % 1013,2 hPa 0,0 l/m 0 min 2 min 176 W/m 22,5 km/h (4 Bft) 100,00 %
25.05.2021 12:50 10,5 C 9,4 C 7,3 C 90 % 1013,3 hPa 0,0 l/m 0 min 2 min 181 W/m 32,2 km/h (5 Bft) 97,87 %
25.05.2021 12:52 10,5 C 9,4 C 7,3 C 90 % 1013,3 hPa 0,2 l/m 0 min 2 min 187 W/m 19,3 km/h (3 Bft) 97,87 %
25.05.2021 12:54 10,4 C 9,4 C 7,3 C 90 % 1013,3 hPa 0,0 l/m 0 min 2 min 208 W/m 35,4 km/h (5 Bft) 95,74 %
25.05.2021 12:56 10,4 C 9,4 C 7,3 C 91 % 1013,3 hPa 0,0 l/m 0 min 2 min 204 W/m 22,5 km/h (4 Bft) 97,87 %
25.05.2021 12:58 10,3 C 9,4 C 7,3 C 91 % 1013,3 hPa 0,0 l/m 0 min 2 min 162 W/m 22,5 km/h (4 Bft) 97,83 %
25.05.2021 13:00 10,3 C 9,4 C 7,3 C 91 % 1013,3 hPa 0,0 l/m 0 min 2 min 163 W/m 12,9 km/h (3 Bft) 97,87 %
25.05.2021 13:02 10,3 C 9,4 C 7,8 C 92 % 1013,3 hPa 0,0 l/m 0 min 2 min 157 W/m 12,9 km/h (3 Bft) 95,74 %
25.05.2021 13:04 10,3 C 9,4 C 7,8 C 92 % 1013,4 hPa 0,0 l/m 0 min 0 min 191 W/m 19,3 km/h (3 Bft) 97,87 %
25.05.2021 13:06 10,3 C 9,4 C 7,8 C 92 % 1013,3 hPa 0,0 l/m 0 min 0 min 229 W/m 19,3 km/h (3 Bft) 97,87 %
25.05.2021 13:08 10,3 C 10,0 C 7,8 C 92 % 1013,3 hPa 0,2 l/m 0 min 0 min 266 W/m 16,1 km/h (3 Bft) 100,00 %
25.05.2021 13:10 10,3 C 10,0 C 7,8 C 92 % 1013,3 hPa 0,0 l/m 0 min 0 min 310 W/m 16,1 km/h (3 Bft) 100,00 %
25.05.2021 13:12 10,3 C 10,6 C 7,8 C 92 % 1013,3 hPa 0,0 l/m 0 min 0 min 340 W/m 12,9 km/h (3 Bft) 100,00 %
25.05.2021 13:14 10,4 C 10,6 C 7,8 C 92 % 1013,3 hPa 0,0 l/m 0 min 0 min 362 W/m 9,7 km/h (2 Bft) 97,87 %
25.05.2021 13:16 10,4 C 10,6 C 7,8 C 92 % 1013,3 hPa 0,0 l/m 0 min 0 min 367 W/m 16,1 km/h (3 Bft) 95,12 %
25.05.2021 13:18 10,5 C 11,1 C 8,4 C 92 % 1013,3 hPa 0,0 l/m 0 min 0 min 384 W/m 16,1 km/h (3 Bft) 95,74 %
25.05.2021 13:20 10,6 C 11,1 C 8,9 C 93 % 1013,2 hPa 0,0 l/m 2 min 0 min 432 W/m 16,1 km/h (3 Bft) 97,83 %
25.05.2021 13:22 10,7 C 11,7 C 10,6 C 93 % 1013,2 hPa 0,0 l/m 2 min 0 min 511 W/m 6,4 km/h (2 Bft) 95,92 %
25.05.2021 13:24 10,9 C 12,2 C 11,7 C 93 % 1013,2 hPa 0,0 l/m 2 min 0 min 805 W/m 19,3 km/h (3 Bft) 95,92 %
25.05.2021 13:26 11,1 C 12,8 C 12,8 C 93 % 1013,2 hPa 0,0 l/m 2 min 0 min 814 W/m 16,1 km/h (3 Bft) 100,00 %
25.05.2021 13:28 11,4 C 13,9 C 14,5 C 93 % 1013,2 hPa 0,0 l/m 2 min 0 min 973 W/m 9,7 km/h (2 Bft) 97,87 %
25.05.2021 13:30 11,7 C 14,4 C 15,6 C 93 % 1013,1 hPa 0,0 l/m 2 min 0 min 1023 W/m 16,1 km/h (3 Bft) 95,74 %
25.05.2021 13:32 12,0 C 14,4 C 15,6 C 93 % 1013,1 hPa 0,0 l/m 2 min 0 min 1004 W/m 22,5 km/h (4 Bft) 97,87 %
25.05.2021 13:34 12,3 C 14,4 C 16,1 C 93 % 1013,1 hPa 0,0 l/m 2 min 0 min 976 W/m 38,6 km/h (5 Bft) 98,15 %
25.05.2021 13:36 12,5 C 14,4 C 16,7 C 91 % 1013,1 hPa 0,0 l/m 2 min 0 min 988 W/m 22,5 km/h (4 Bft) 96,49 %
25.05.2021 13:38 12,8 C 15,0 C 16,7 C 91 % 1013,2 hPa 0,0 l/m 2 min 0 min 1001 W/m 22,5 km/h (4 Bft) 96,55 %
25.05.2021 13:40 13,0 C 15,0 C 16,7 C 90 % 1013,1 hPa 0,0 l/m 2 min 0 min 1009 W/m 22,5 km/h (4 Bft) 98,21 %
25.05.2021 13:42 13,2 C 15,0 C 15,6 C 89 % 1013,2 hPa 0,0 l/m 2 min 0 min 1044 W/m 19,3 km/h (3 Bft) 95,74 %
25.05.2021 13:44 13,4 C 15,0 C 17,3 C 88 % 1013,1 hPa 0,0 l/m 2 min 0 min 1050 W/m 19,3 km/h (3 Bft) 100,00 %
25.05.2021 13:46 13,5 C 15,6 C 17,3 C 87 % 1013,1 hPa 0,0 l/m 2 min 0 min 1044 W/m 19,3 km/h (3 Bft) 95,74 %
25.05.2021 13:48 13,7 C 15,6 C 16,7 C 85 % 1013,2 hPa 0,0 l/m 2 min 0 min 1096 W/m 25,7 km/h (4 Bft) 97,83 %
25.05.2021 13:50 13,8 C 15,6 C 15,6 C 85 % 1013,2 hPa 0,0 l/m 2 min 0 min 1146 W/m 32,2 km/h (5 Bft) 97,87 %
25.05.2021 13:52 14,0 C 15,6 C 15,0 C 84 % 1013,1 hPa 0,0 l/m 2 min 0 min 1091 W/m 19,3 km/h (3 Bft) 96,00 %
25.05.2021 13:54 14,0 C 15,0 C 13,9 C 83 % 1013,1 hPa 0,0 l/m 2 min 0 min 663 W/m 22,5 km/h (4 Bft) 98,11 %
25.05.2021 13:56 14,0 C 14,4 C 13,4 C 82 % 1013,2 hPa 0,0 l/m 0 min 0 min 222 W/m 19,3 km/h (3 Bft) 95,74 %
25.05.2021 13:58 13,9 C 13,9 C 12,3 C 82 % 1013,3 hPa 0,0 l/m 0 min 0 min 180 W/m 41,8 km/h (6 Bft) 100,00 %
25.05.2021 14:00 13,6 C 13,3 C 12,3 C 80 % 1013,4 hPa 0,0 l/m 0 min 0 min 197 W/m 32,2 km/h (5 Bft) 100,00 %
25.05.2021 14:02 13,4 C 12,8 C 11,1 C 80 % 1013,5 hPa 0,0 l/m 0 min 0 min 140 W/m 19,3 km/h (3 Bft) 100,00 %
25.05.2021 14:04 13,1 C 12,2 C 10,6 C 81 % 1013,6 hPa 0,0 l/m 0 min 0 min 156 W/m 29,0 km/h (5 Bft) 95,74 %
25.05.2021 14:06 12,8 C 12,2 C 10,6 C 83 % 1013,8 hPa 0,0 l/m 0 min 0 min 150 W/m 25,7 km/h (4 Bft) 97,87 %
25.05.2021 14:08 12,5 C 11,7 C 10,0 C 83 % 1013,9 hPa 0,0 l/m 0 min 2 min 132 W/m 22,5 km/h (4 Bft) 97,87 %
25.05.2021 14:10 12,2 C 11,1 C 9,5 C 84 % 1013,9 hPa 0,0 l/m 0 min 2 min 118 W/m 22,5 km/h (4 Bft) 95,65 %
25.05.2021 14:12 12,0 C 11,1 C 8,9 C 85 % 1014,0 hPa 0,0 l/m 0 min 2 min 102 W/m 22,5 km/h (4 Bft) 97,87 %
25.05.2021 14:14 11,8 C 10,6 C 8,4 C 86 % 1014,0 hPa 0,0 l/m 0 min 2 min 94 W/m 12,9 km/h (3 Bft) 97,73 %
25.05.2021 14:16 11,5 C 10,6 C 8,4 C 87 % 1014,0 hPa 0,2 l/m 0 min 2 min 96 W/m 22,5 km/h (4 Bft) 97,87 %
25.05.2021 14:18 11,4 C 10,6 C 7,8 C 87 % 1014,0 hPa 0,0 l/m 0 min 2 min 130 W/m 19,3 km/h (3 Bft) 97,87 %
25.05.2021 14:20 11,3 C 10,6 C 8,4 C 88 % 1014,0 hPa 0,0 l/m 0 min 2 min 200 W/m 16,1 km/h (3 Bft) 95,65 %
25.05.2021 14:22 11,1 C 10,6 C 8,4 C 88 % 1014,1 hPa 0,0 l/m 0 min 0 min 263 W/m 19,3 km/h (3 Bft) 97,87 %
25.05.2021 14:24 11,1 C 10,6 C 8,4 C 89 % 1014,1 hPa 0,0 l/m 0 min 0 min 311 W/m 19,3 km/h (3 Bft) 97,87 %
25.05.2021 14:26 11,0 C 11,1 C 8,4 C 89 % 1014,0 hPa 0,0 l/m 0 min 0 min 384 W/m 22,5 km/h (4 Bft) 98,00 %
25.05.2021 14:28 11,0 C 11,7 C 8,4 C 89 % 1014,0 hPa 0,0 l/m 2 min 0 min 453 W/m 16,1 km/h (3 Bft) 97,87 %
25.05.2021 14:30 11,0 C 11,7 C 8,4 C 89 % 1014,1 hPa 0,0 l/m 2 min 0 min 478 W/m 22,5 km/h (4 Bft) 97,87 %
25.05.2021 14:32 11,2 C 12,8 C 8,9 C 89 % 1014,1 hPa 0,0 l/m 2 min 0 min 506 W/m 16,1 km/h (3 Bft) 95,65 %
25.05.2021 14:34 11,4 C 12,8 C 8,9 C 89 % 1014,1 hPa 0,0 l/m 2 min 0 min 634 W/m 29,0 km/h (5 Bft) 97,87 %
25.05.2021 14:36 11,5 C 13,3 C 9,5 C 89 % 1014,3 hPa 0,0 l/m 2 min 0 min 775 W/m 32,2 km/h (5 Bft) 97,87 %
25.05.2021 14:38 11,6 C 12,8 C 9,5 C 88 % 1014,3 hPa 0,0 l/m 2 min 0 min 435 W/m 32,2 km/h (5 Bft) 97,87 %
25.05.2021 14:40 11,5 C 12,8 C 8,9 C 88 % 1014,1 hPa 0,0 l/m 2 min 0 min 458 W/m 22,5 km/h (4 Bft) 55,32 %
25.05.2021 14:42 11,6 C 13,9 C 9,5 C 87 % 1014,1 hPa 0,0 l/m 2 min 0 min 773 W/m 19,3 km/h (3 Bft) 97,87 %
25.05.2021 14:44 11,9 C 14,4 C 9,5 C 88 % 1014,2 hPa 0,0 l/m 2 min 0 min 833 W/m 16,1 km/h (3 Bft) 97,83 %
25.05.2021 14:46 12,1 C 15,0 C 10,0 C 88 % 1014,1 hPa 0,0 l/m 2 min 0 min 831 W/m 22,5 km/h (4 Bft) 95,74 %
25.05.2021 14:48 12,3 C 15,0 C 10,0 C 87 % 1014,2 hPa 0,0 l/m 2 min 0 min 1116 W/m 22,5 km/h (4 Bft) 97,87 %
25.05.2021 14:50 12,5 C 15,6 C 10,0 C 87 % 1014,2 hPa 0,0 l/m 2 min 0 min 1085 W/m 22,5 km/h (4 Bft) 95,74 %
25.05.2021 14:52 12,7 C 16,1 C 10,0 C 86 % 1014,2 hPa 0,0 l/m 2 min 0 min 1017 W/m 16,1 km/h (3 Bft) 97,87 %
25.05.2021 14:54 12,8 C 15,6 C 10,0 C 84 % 1014,2 hPa 0,0 l/m 2 min 0 min 1007 W/m 35,4 km/h (5 Bft) 97,87 %
25.05.2021 14:56 12,9 C 15,6 C 10,0 C 84 % 1014,1 hPa 0,0 l/m 2 min 0 min 1003 W/m 22,5 km/h (4 Bft) 97,83 %
25.05.2021 14:58 13,0 C 15,6 C 10,0 C 83 % 1014,1 hPa 0,0 l/m 2 min 0 min 978 W/m 35,4 km/h (5 Bft) 97,87 %
25.05.2021 15:00 13,0 C 15,0 C 10,0 C 83 % 1014,1 hPa 0,0 l/m 2 min 0 min 916 W/m 38,6 km/h (5 Bft) 95,74 %
25.05.2021 15:02 12,9 C 14,4 C 10,0 C 80 % 1014,1 hPa 0,0 l/m 2 min 0 min 919 W/m 48,3 km/h (6 Bft) 95,74 %
25.05.2021 15:04 12,9 C 14,4 C 10,6 C 82 % 1014,0 hPa 0,0 l/m 2 min 0 min 966 W/m 25,7 km/h (4 Bft) 97,87 %
25.05.2021 15:06 13,0 C 15,0 C 10,6 C 82 % 1014,2 hPa 0,0 l/m 2 min 0 min 995 W/m 25,7 km/h (4 Bft) 97,87 %
25.05.2021 15:08 13,1 C 15,0 C 11,1 C 82 % 1014,2 hPa 0,0 l/m 2 min 0 min 998 W/m 22,5 km/h (4 Bft) 97,83 %
25.05.2021 15:10 13,2 C 15,0 C 11,1 C 80 % 1014,2 hPa 0,0 l/m 2 min 0 min 945 W/m 22,5 km/h (4 Bft) 97,87 %
25.05.2021 15:12 13,3 C 15,0 C 11,1 C 81 % 1014,2 hPa 0,0 l/m 2 min 0 min 960 W/m 19,3 km/h (3 Bft) 97,87 %
25.05.2021 15:14 13,3 C 15,0 C 11,1 C 80 % 1014,3 hPa 0,0 l/m 2 min 0 min 944 W/m 19,3 km/h (3 Bft) 97,87 %
25.05.2021 15:16 13,4 C 15,6 C 11,1 C 80 % 1014,4 hPa 0,0 l/m 2 min 0 min 872 W/m 22,5 km/h (4 Bft) 95,74 %
25.05.2021 15:18 13,3 C 15,0 C 11,1 C 79 % 1014,4 hPa 0,0 l/m 2 min 0 min 872 W/m 35,4 km/h (5 Bft) 97,87 %
25.05.2021 15:20 13,1 C 13,9 C 11,1 C 79 % 1014,4 hPa 0,0 l/m 2 min 0 min 504 W/m 29,0 km/h (5 Bft) 100,00 %
25.05.2021 15:22 12,9 C 13,3 C 10,6 C 79 % 1014,4 hPa 0,0 l/m 0 min 0 min 240 W/m 22,5 km/h (4 Bft) 97,87 %
25.05.2021 15:24 12,8 C 13,3 C 10,6 C 80 % 1014,4 hPa 0,0 l/m 0 min 0 min 319 W/m 19,3 km/h (3 Bft) 97,87 %
25.05.2021 15:26 12,6 C 13,3 C 10,6 C 79 % 1014,4 hPa 0,0 l/m 2 min 0 min 388 W/m 29,0 km/h (5 Bft) 100,00 %
25.05.2021 15:28 12,6 C 13,9 C 10,6 C 80 % 1014,4 hPa 0,0 l/m 2 min 0 min 572 W/m 19,3 km/h (3 Bft) 95,74 %
25.05.2021 15:30 12,5 C 13,9 C 11,1 C 80 % 1014,3 hPa 0,0 l/m 2 min 0 min 502 W/m 16,1 km/h (3 Bft) 97,87 %
25.05.2021 15:32 12,6 C 13,9 C 11,1 C 81 % 1014,4 hPa 0,0 l/m 2 min 0 min 457 W/m 22,5 km/h (4 Bft) 97,83 %
25.05.2021 15:34 12,6 C 13,9 C 11,1 C 80 % 1014,4 hPa 0,0 l/m 2 min 0 min 453 W/m 19,3 km/h (3 Bft) 100,00 %
25.05.2021 15:36 12,6 C 13,9 C 11,1 C 80 % 1014,4 hPa 0,0 l/m 2 min 0 min 515 W/m 22,5 km/h (4 Bft) 100,00 %
25.05.2021 15:38 12,8 C 15,0 C 11,7 C 80 % 1014,4 hPa 0,0 l/m 2 min 0 min 617 W/m 19,3 km/h (3 Bft) 95,92 %
25.05.2021 15:40 12,9 C 14,4 C 11,1 C 79 % 1014,4 hPa 0,0 l/m 2 min 0 min 583 W/m 32,2 km/h (5 Bft) 97,87 %
25.05.2021 15:42 13,0 C 14,4 C 11,1 C 79 % 1014,5 hPa 0,0 l/m 2 min 0 min 619 W/m 12,9 km/h (3 Bft) 100,00 %
25.05.2021 15:44 13,1 C 14,4 C 11,1 C 79 % 1014,5 hPa 0,0 l/m 2 min 0 min 531 W/m 19,3 km/h (3 Bft) 100,00 %
25.05.2021 15:46 13,0 C 13,3 C 11,1 C 77 % 1014,5 hPa 0,0 l/m 0 min 0 min 320 W/m 25,7 km/h (4 Bft) 95,74 %
25.05.2021 15:48 12,9 C 13,3 C 10,6 C 78 % 1014,5 hPa 0,0 l/m 0 min 0 min 267 W/m 16,1 km/h (3 Bft) 100,00 %
25.05.2021 15:50 12,8 C 13,3 C 10,6 C 78 % 1014,5 hPa 0,0 l/m 0 min 0 min 274 W/m 22,5 km/h (4 Bft) 100,00 %
25.05.2021 15:52 12,8 C 13,3 C 10,6 C 79 % 1014,6 hPa 0,0 l/m 0 min 0 min 300 W/m 25,7 km/h (4 Bft) 95,74 %
25.05.2021 15:54 12,6 C 12,8 C 10,6 C 78 % 1014,5 hPa 0,0 l/m 0 min 0 min 302 W/m 22,5 km/h (4 Bft) 97,83 %
25.05.2021 15:56 12,6 C 12,8 C 10,6 C 79 % 1014,5 hPa 0,0 l/m 0 min 0 min 286 W/m 12,9 km/h (3 Bft) 97,87 %
25.05.2021 15:58 12,7 C 13,3 C 11,1 C 80 % 1014,5 hPa 0,0 l/m 0 min 0 min 267 W/m 12,9 km/h (3 Bft) 93,62 %
25.05.2021 16:00 12,7 C 13,3 C 10,6 C 79 % 1014,5 hPa 0,0 l/m 0 min 0 min 292 W/m 19,3 km/h (3 Bft) 95,74 %
25.05.2021 16:02 12,8 C 13,3 C 11,1 C 79 % 1014,4 hPa 0,0 l/m 2 min 0 min 372 W/m 32,2 km/h (5 Bft) 87,23 %
25.05.2021 16:04 12,8 C 13,9 C 11,1 C 78 % 1014,5 hPa 0,0 l/m 2 min 0 min 470 W/m 22,5 km/h (4 Bft) 91,49 %
25.05.2021 16:06 12,9 C 15,0 C 11,1 C 79 % 1014,5 hPa 0,0 l/m 2 min 0 min 531 W/m 16,1 km/h (3 Bft) 91,30 %
25.05.2021 16:08 12,9 C 15,0 C 11,1 C 78 % 1014,5 hPa 0,0 l/m 2 min 0 min 547 W/m 32,2 km/h (5 Bft) 93,62 %
25.05.2021 16:10 13,0 C 14,4 C 11,7 C 78 % 1014,4 hPa 0,0 l/m 2 min 0 min 578 W/m 38,6 km/h (5 Bft) 93,62 %
25.05.2021 16:12 13,0 C 14,4 C 11,1 C 78 % 1014,5 hPa 0,0 l/m 2 min 0 min 564 W/m 45,1 km/h (6 Bft) 95,74 %
25.05.2021 16:14 13,0 C 13,9 C 11,1 C 78 % 1014,4 hPa 0,0 l/m 2 min 0 min 520 W/m 29,0 km/h (5 Bft) 91,49 %
25.05.2021 16:16 13,0 C 13,9 C 11,1 C 78 % 1014,5 hPa 0,0 l/m 2 min 0 min 445 W/m 22,5 km/h (4 Bft) 95,74 %
25.05.2021 16:18 12,9 C 13,9 C 11,1 C 79 % 1014,4 hPa 0,0 l/m 2 min 0 min 391 W/m 25,7 km/h (4 Bft) 95,65 %
25.05.2021 16:20 12,9 C 13,3 C 11,1 C 78 % 1014,4 hPa 0,0 l/m 0 min 0 min 341 W/m 35,4 km/h (5 Bft) 93,62 %
25.05.2021 16:22 12,8 C 13,3 C 11,1 C 78 % 1014,4 hPa 0,0 l/m 0 min 0 min 315 W/m 19,3 km/h (3 Bft) 95,74 %
25.05.2021 16:24 12,8 C 13,3 C 11,1 C 78 % 1014,4 hPa 0,0 l/m 0 min 0 min 320 W/m 22,5 km/h (4 Bft) 95,74 %
25.05.2021 16:26 12,8 C 13,3 C 11,1 C 78 % 1014,3 hPa 0,0 l/m 2 min 0 min 397 W/m 19,3 km/h (3 Bft) 95,74 %
25.05.2021 16:28 12,8 C 13,3 C 11,1 C 79 % 1014,4 hPa 0,0 l/m 2 min 0 min 375 W/m 32,2 km/h (5 Bft) 95,74 %
25.05.2021 16:30 12,6 C 12,8 C 10,6 C 78 % 1014,4 hPa 0,0 l/m 0 min 0 min 316 W/m 35,4 km/h (5 Bft) 97,83 %
25.05.2021 16:32 12,5 C 12,8 C 10,6 C 78 % 1014,3 hPa 0,0 l/m 0 min 0 min 271 W/m 25,7 km/h (4 Bft) 91,49 %
25.05.2021 16:34 12,4 C 12,2 C 10,6 C 77 % 1014,3 hPa 0,0 l/m 0 min 0 min 233 W/m 25,7 km/h (4 Bft) 95,74 %
25.05.2021 16:36 12,4 C 12,2 C 10,6 C 78 % 1014,3 hPa 0,0 l/m 0 min 0 min 199 W/m 29,0 km/h (5 Bft) 91,49 %
25.05.2021 16:38 12,3 C 12,2 C 10,6 C 79 % 1014,2 hPa 0,0 l/m 0 min 0 min 184 W/m 25,7 km/h (4 Bft) 93,62 %
25.05.2021 16:40 12,3 C 12,2 C 10,6 C 79 % 1014,3 hPa 0,0 l/m 0 min 0 min 198 W/m 16,1 km/h (3 Bft) 97,87 %
25.05.2021 16:42 12,4 C 12,2 C 10,6 C 79 % 1014,3 hPa 0,0 l/m 0 min 0 min 217 W/m 12,9 km/h (3 Bft) 97,67 %
25.05.2021 16:44 12,4 C 12,8 C 10,6 C 80 % 1014,3 hPa 0,0 l/m 0 min 0 min 212 W/m 16,1 km/h (3 Bft) 95,65 %
25.05.2021 16:46 12,4 C 12,8 C 10,6 C 80 % 1014,3 hPa 0,0 l/m 0 min 0 min 192 W/m 9,7 km/h (2 Bft) 95,74 %
25.05.2021 16:48 12,5 C 12,8 C 10,6 C 80 % 1014,4 hPa 0,0 l/m 0 min 0 min 192 W/m 16,1 km/h (3 Bft) 97,87 %
25.05.2021 16:50 12,5 C 12,8 C 10,6 C 80 % 1014,4 hPa 0,0 l/m 0 min 0 min 180 W/m 25,7 km/h (4 Bft) 97,87 %
25.05.2021 16:52 12,5 C 12,2 C 10,6 C 79 % 1014,4 hPa 0,0 l/m 0 min 0 min 181 W/m 22,5 km/h (4 Bft) 97,87 %
25.05.2021 16:54 12,4 C 12,2 C 10,0 C 79 % 1014,4 hPa 0,0 l/m 0 min 0 min 200 W/m 19,3 km/h (3 Bft) 95,65 %
25.05.2021 16:56 12,4 C 12,2 C 10,6 C 80 % 1014,4 hPa 0,0 l/m 0 min 0 min 206 W/m 22,5 km/h (4 Bft) 100,00 %
25.05.2021 16:58 12,4 C 12,2 C 10,0 C 79 % 1014,5 hPa 0,0 l/m 0 min 0 min 204 W/m 32,2 km/h (5 Bft) 100,00 %
25.05.2021 17:00 12,3 C 12,2 C 10,0 C 80 % 1014,4 hPa 0,0 l/m 0 min 0 min 200 W/m 16,1 km/h (3 Bft) 97,87 %
25.05.2021 17:02 12,3 C 12,2 C 10,0 C 81 % 1014,5 hPa 0,0 l/m 0 min 0 min 174 W/m 16,1 km/h (3 Bft) 97,87 %
25.05.2021 17:04 12,2 C 12,2 C 10,0 C 81 % 1014,5 hPa 0,0 l/m 0 min 0 min 153 W/m 19,3 km/h (3 Bft) 100,00 %
25.05.2021 17:06 12,1 C 11,7 C 9,5 C 81 % 1014,6 hPa 0,0 l/m 0 min 0 min 134 W/m 12,9 km/h (3 Bft) 100,00 %
25.05.2021 17:08 12,0 C 11,7 C 9,5 C 81 % 1014,5 hPa 0,0 l/m 0 min 2 min 91 W/m 29,0 km/h (5 Bft) 100,00 %
25.05.2021 17:10 12,0 C 11,7 C 8,9 C 82 % 1014,6 hPa 0,0 l/m 0 min 2 min 99 W/m 16,1 km/h (3 Bft) 100,00 %
25.05.2021 17:12 11,9 C 11,7 C 8,4 C 83 % 1014,5 hPa 0,0 l/m 0 min 2 min 147 W/m 6,4 km/h (2 Bft) 100,00 %
25.05.2021 17:14 11,9 C 12,2 C 8,4 C 85 % 1014,4 hPa 0,0 l/m 0 min 2 min 220 W/m 12,9 km/h (3 Bft) 100,00 %
25.05.2021 17:16 11,9 C 13,3 C 8,4 C 85 % 1014,4 hPa 0,0 l/m 0 min 2 min 280 W/m 22,5 km/h (4 Bft) 100,00 %
25.05.2021 17:18 11,9 C 13,3 C 8,4 C 86 % 1014,5 hPa 0,0 l/m 2 min 0 min 621 W/m 19,3 km/h (3 Bft) 100,00 %
25.05.2021 17:20 11,9 C 13,3 C 8,9 C 86 % 1014,5 hPa 0,0 l/m 2 min 0 min 333 W/m 9,7 km/h (2 Bft) 100,00 %
25.05.2021 17:22 12,0 C 12,8 C 8,9 C 87 % 1014,4 hPa 0,0 l/m 2 min 0 min 313 W/m 19,3 km/h (3 Bft) 97,87 %
25.05.2021 17:24 12,0 C 12,8 C 8,9 C 86 % 1014,4 hPa 0,0 l/m 2 min 0 min 310 W/m 22,5 km/h (4 Bft) 100,00 %
25.05.2021 17:26 11,9 C 12,2 C 8,9 C 85 % 1014,4 hPa 0,0 l/m 0 min 0 min 271 W/m 22,5 km/h (4 Bft) 100,00 %
25.05.2021 17:28 11,9 C 12,2 C 8,9 C 85 % 1014,4 hPa 0,0 l/m 0 min 0 min 246 W/m 22,5 km/h (4 Bft) 100,00 %
25.05.2021 17:30 12,0 C 12,2 C 8,9 C 85 % 1014,4 hPa 0,0 l/m 0 min 0 min 213 W/m 19,3 km/h (3 Bft) 100,00 %
25.05.2021 17:32 12,0 C 12,2 C 8,9 C 85 % 1014,5 hPa 0,0 l/m 0 min 0 min 161 W/m 16,1 km/h (3 Bft) 93,75 %
25.05.2021 17:34 12,0 C 12,2 C 9,5 C 86 % 1014,4 hPa 0,0 l/m 0 min 0 min 150 W/m 16,1 km/h (3 Bft) 100,00 %
25.05.2021 17:36 12,0 C 12,2 C 9,5 C 86 % 1014,4 hPa 0,0 l/m 0 min 0 min 160 W/m 16,1 km/h (3 Bft) 100,00 %
25.05.2021 17:38 12,0 C 11,7 C 9,5 C 85 % 1014,4 hPa 0,0 l/m 0 min 0 min 162 W/m 16,1 km/h (3 Bft) 100,00 %
25.05.2021 17:40 11,9 C 11,7 C 8,9 C 86 % 1014,4 hPa 0,0 l/m 0 min 0 min 143 W/m 12,9 km/h (3 Bft) 100,00 %
25.05.2021 17:42 11,9 C 11,7 C 9,5 C 86 % 1014,3 hPa 0,0 l/m 0 min 0 min 146 W/m 19,3 km/h (3 Bft) 100,00 %
25.05.2021 17:44 11,8 C 11,7 C 8,9 C 86 % 1014,4 hPa 0,0 l/m 0 min 2 min 145 W/m 19,3 km/h (3 Bft) 97,87 %
25.05.2021 17:46 11,8 C 11,7 C 8,9 C 86 % 1014,4 hPa 0,0 l/m 0 min 2 min 144 W/m 16,1 km/h (3 Bft) 100,00 %
25.05.2021 17:48 11,8 C 11,7 C 8,9 C 87 % 1014,4 hPa 0,0 l/m 0 min 2 min 137 W/m 12,9 km/h (3 Bft) 100,00 %
25.05.2021 17:50 11,8 C 11,7 C 8,9 C 87 % 1014,4 hPa 0,0 l/m 0 min 2 min 111 W/m 19,3 km/h (3 Bft) 100,00 %
25.05.2021 17:52 11,6 C 11,1 C 8,4 C 87 % 1014,4 hPa 0,2 l/m 0 min 2 min 125 W/m 19,3 km/h (3 Bft) 100,00 %
25.05.2021 17:54 11,5 C 11,1 C 8,4 C 87 % 1014,4 hPa 0,0 l/m 0 min 2 min 154 W/m 19,3 km/h (3 Bft) 97,83 %
25.05.2021 17:56 11,5 C 11,1 C 8,4 C 88 % 1014,3 hPa 0,0 l/m 0 min 2 min 187 W/m 6,4 km/h (2 Bft) 100,00 %
25.05.2021 17:58 11,5 C 11,1 C 8,4 C 88 % 1014,3 hPa 0,0 l/m 0 min 2 min 174 W/m 9,7 km/h (2 Bft) 97,87 %
25.05.2021 18:00 11,5 C 11,1 C 8,4 C 88 % 1014,4 hPa 0,0 l/m 0 min 2 min 124 W/m 22,5 km/h (4 Bft) 97,87 %
25.05.2021 18:02 11,4 C 11,1 C 8,4 C 88 % 1014,4 hPa 0,0 l/m 0 min 2 min 104 W/m 12,9 km/h (3 Bft) 95,74 %
25.05.2021 18:04 11,4 C 11,1 C 8,4 C 89 % 1014,4 hPa 0,0 l/m 0 min 2 min 99 W/m 19,3 km/h (3 Bft) 97,83 %
25.05.2021 18:08 11,3 C 11,1 C 8,4 C 89 % 1014,4 hPa 0,0 l/m 0 min 4 min 100 W/m 16,1 km/h (3 Bft) 97,87 %
25.05.2021 18:10 11,3 C 11,1 C 8,4 C 89 % 1014,4 hPa 0,0 l/m 0 min 2 min 68 W/m 16,1 km/h (3 Bft) 97,87 %
25.05.2021 18:12 11,3 C 10,6 C 8,4 C 89 % 1014,5 hPa 0,0 l/m 0 min 2 min 61 W/m 22,5 km/h (4 Bft) 97,87 %
25.05.2021 18:14 11,2 C 10,6 C 8,4 C 89 % 1014,5 hPa 0,0 l/m 0 min 2 min 62 W/m 19,3 km/h (3 Bft) 97,87 %
25.05.2021 18:16 11,0 C 10,6 C 7,8 C 89 % 1014,4 hPa 0,0 l/m 0 min 2 min 68 W/m 32,2 km/h (5 Bft) 97,83 %
25.05.2021 18:18 11,0 C 10,6 C 7,8 C 89 % 1014,4 hPa 0,0 l/m 0 min 2 min 95 W/m 12,9 km/h (3 Bft) 97,87 %
25.05.2021 18:20 10,9 C 10,6 C 7,8 C 89 % 1014,4 hPa 0,0 l/m 0 min 2 min 108 W/m 16,1 km/h (3 Bft) 95,74 %
25.05.2021 18:22 10,9 C 10,6 C 7,8 C 89 % 1014,4 hPa 0,0 l/m 0 min 2 min 98 W/m 35,4 km/h (5 Bft) 100,00 %
25.05.2021 18:24 10,8 C 10,6 C 7,8 C 89 % 1014,4 hPa 0,0 l/m 0 min 2 min 92 W/m 25,7 km/h (4 Bft) 97,87 %
25.05.2021 18:26 10,8 C 10,6 C 7,8 C 89 % 1014,4 hPa 0,0 l/m 0 min 2 min 93 W/m 29,0 km/h (5 Bft) 97,87 %
25.05.2021 18:28 10,7 C 10,0 C 7,8 C 89 % 1014,4 hPa 0,0 l/m 0 min 2 min 96 W/m 35,4 km/h (5 Bft) 95,65 %
25.05.2021 18:30 10,6 C 10,0 C 7,8 C 89 % 1014,3 hPa 0,0 l/m 0 min 2 min 82 W/m 35,4 km/h (5 Bft) 100,00 %
25.05.2021 18:32 10,6 C 10,0 C 7,8 C 89 % 1014,3 hPa 0,0 l/m 0 min 2 min 70 W/m 16,1 km/h (3 Bft) 100,00 %
25.05.2021 18:34 10,6 C 10,0 C 7,3 C 89 % 1014,3 hPa 0,2 l/m 0 min 2 min 68 W/m 22,5 km/h (4 Bft) 97,87 %
25.05.2021 18:36 10,5 C 10,0 C 7,3 C 90 % 1014,3 hPa 0,0 l/m 0 min 2 min 78 W/m 29,0 km/h (5 Bft) 97,87 %
25.05.2021 18:38 10,4 C 10,0 C 7,3 C 90 % 1014,3 hPa 0,0 l/m 0 min 2 min 90 W/m 29,0 km/h (5 Bft) 97,87 %
25.05.2021 18:40 10,4 C 10,0 C 7,3 C 90 % 1014,3 hPa 0,0 l/m 0 min 2 min 108 W/m 22,5 km/h (4 Bft) 97,83 %
25.05.2021 18:42 10,4 C 10,0 C 7,3 C 90 % 1014,3 hPa 0,0 l/m 0 min 2 min 113 W/m 25,7 km/h (4 Bft) 97,87 %
25.05.2021 18:44 10,4 C 10,0 C 7,3 C 91 % 1014,3 hPa 0,0 l/m 0 min 2 min 122 W/m 19,3 km/h (3 Bft) 95,74 %
25.05.2021 18:46 10,4 C 10,0 C 7,3 C 91 % 1014,3 hPa 0,0 l/m 0 min 2 min 120 W/m 25,7 km/h (4 Bft) 95,74 %
25.05.2021 18:48 10,4 C 10,0 C 7,3 C 91 % 1014,3 hPa 0,0 l/m 0 min 2 min 114 W/m 22,5 km/h (4 Bft) 95,74 %
25.05.2021 18:50 10,4 C 10,0 C 7,3 C 91 % 1014,3 hPa 0,0 l/m 0 min 2 min 114 W/m 29,0 km/h (5 Bft) 97,87 %
25.05.2021 18:52 10,4 C 10,0 C 7,3 C 91 % 1014,3 hPa 0,0 l/m 0 min 0 min 111 W/m 12,9 km/h (3 Bft) 93,48 %
25.05.2021 18:54 10,4 C 10,0 C 7,3 C 91 % 1014,3 hPa 0,0 l/m 0 min 0 min 107 W/m 29,0 km/h (5 Bft) 95,74 %
25.05.2021 18:56 10,4 C 10,0 C 7,3 C 91 % 1014,4 hPa 0,0 l/m 0 min 0 min 101 W/m 25,7 km/h (4 Bft) 93,62 %
25.05.2021 18:58 10,4 C 10,0 C 7,3 C 91 % 1014,4 hPa 0,0 l/m 0 min 0 min 94 W/m 16,1 km/h (3 Bft) 95,74 %
25.05.2021 19:00 10,4 C 10,0 C 7,3 C 91 % 1014,4 hPa 0,0 l/m 0 min 0 min 97 W/m 16,1 km/h (3 Bft) 93,62 %
25.05.2021 19:02 10,5 C 10,6 C 7,8 C 91 % 1014,4 hPa 0,0 l/m 0 min 0 min 94 W/m 12,9 km/h (3 Bft) 95,74 %
25.05.2021 19:04 10,5 C 10,6 C 7,8 C 91 % 1014,4 hPa 0,0 l/m 0 min 0 min 84 W/m 16,1 km/h (3 Bft) 93,62 %
25.05.2021 19:06 10,5 C 10,6 C 7,8 C 91 % 1014,4 hPa 0,0 l/m 0 min 0 min 73 W/m 12,9 km/h (3 Bft) 91,49 %
25.05.2021 19:08 10,5 C 10,6 C 7,8 C 91 % 1014,5 hPa 0,0 l/m 0 min 0 min 63 W/m 19,3 km/h (3 Bft) 91,49 %
25.05.2021 19:10 10,5 C 10,0 C 7,3 C 91 % 1014,5 hPa 0,0 l/m 0 min 0 min 58 W/m 29,0 km/h (5 Bft) 93,62 %
25.05.2021 19:12 10,5 C 10,0 C 7,8 C 90 % 1014,4 hPa 0,0 l/m 0 min 0 min 54 W/m 12,9 km/h (3 Bft) 93,62 %
25.05.2021 19:14 10,5 C 10,0 C 7,8 C 90 % 1014,4 hPa 0,0 l/m 0 min 0 min 58 W/m 9,7 km/h (2 Bft) 91,30 %
25.05.2021 19:16 10,5 C 10,0 C 7,3 C 90 % 1014,5 hPa 0,0 l/m 0 min 2 min 59 W/m 22,5 km/h (4 Bft) 95,74 %
25.05.2021 19:18 10,5 C 10,0 C 7,3 C 91 % 1014,5 hPa 0,0 l/m 0 min 2 min 50 W/m 16,1 km/h (3 Bft) 95,74 %
25.05.2021 19:20 10,5 C 10,0 C 7,8 C 91 % 1014,5 hPa 0,0 l/m 0 min 2 min 45 W/m 6,4 km/h (2 Bft) 93,62 %
25.05.2021 19:22 10,5 C 10,0 C 7,8 C 90 % 1014,4 hPa 0,0 l/m 0 min 2 min 45 W/m 19,3 km/h (3 Bft) 95,74 %
25.05.2021 19:24 10,5 C 10,0 C 7,8 C 90 % 1014,4 hPa 0,0 l/m 0 min 2 min 44 W/m 29,0 km/h (5 Bft) 95,74 %
25.05.2021 19:26 10,5 C 10,0 C 7,8 C 91 % 1014,3 hPa 0,0 l/m 0 min 2 min 46 W/m 9,7 km/h (2 Bft) 95,65 %
25.05.2021 19:28 10,5 C 10,0 C 7,8 C 91 % 1014,4 hPa 0,0 l/m 0 min 2 min 46 W/m 16,1 km/h (3 Bft) 95,74 %
25.05.2021 19:30 10,4 C 10,0 C 7,8 C 91 % 1014,3 hPa 0,0 l/m 0 min 2 min 48 W/m 25,7 km/h (4 Bft) 89,36 %
25.05.2021 19:32 10,4 C 10,0 C 7,8 C 91 % 1014,4 hPa 0,0 l/m 0 min 2 min 52 W/m 9,7 km/h (2 Bft) 97,92 %
25.05.2021 19:34 10,4 C 10,0 C 7,8 C 91 % 1014,3 hPa 0,0 l/m 0 min 2 min 56 W/m 25,7 km/h (4 Bft) 93,62 %
25.05.2021 19:36 10,4 C 10,0 C 7,8 C 91 % 1014,3 hPa 0,0 l/m 0 min 2 min 50 W/m 22,5 km/h (4 Bft) 95,74 %
25.05.2021 19:38 10,4 C 10,0 C 7,8 C 91 % 1014,4 hPa 0,0 l/m 0 min 2 min 50 W/m 22,5 km/h (4 Bft) 97,83 %
25.05.2021 19:40 10,4 C 10,0 C 7,8 C 91 % 1014,4 hPa 0,0 l/m 0 min 0 min 55 W/m 19,3 km/h (3 Bft) 95,74 %
25.05.2021 19:42 10,4 C 10,0 C 7,8 C 91 % 1014,4 hPa 0,0 l/m 0 min 0 min 97 W/m 16,1 km/h (3 Bft) 97,87 %
25.05.2021 19:44 10,4 C 10,0 C 7,8 C 91 % 1014,4 hPa 0,0 l/m 0 min 0 min 97 W/m 19,3 km/h (3 Bft) 97,87 %
25.05.2021 19:46 10,5 C 10,6 C 7,8 C 91 % 1014,4 hPa 0,0 l/m 0 min 0 min 113 W/m 19,3 km/h (3 Bft) 97,87 %
25.05.2021 19:48 10,5 C 10,6 C 7,8 C 91 % 1014,4 hPa 0,0 l/m 2 min 0 min 137 W/m 25,7 km/h (4 Bft) 97,87 %
25.05.2021 19:50 10,6 C 10,6 C 8,4 C 91 % 1014,4 hPa 0,0 l/m 2 min 0 min 150 W/m 16,1 km/h (3 Bft) 93,48 %
25.05.2021 19:52 10,6 C 10,6 C 8,4 C 91 % 1014,4 hPa 0,0 l/m 2 min 0 min 134 W/m 22,5 km/h (4 Bft) 100,00 %
25.05.2021 19:54 10,6 C 10,6 C 8,4 C 91 % 1014,4 hPa 0,0 l/m 2 min 0 min 114 W/m 19,3 km/h (3 Bft) 100,00 %
25.05.2021 19:56 10,6 C 10,6 C 8,4 C 91 % 1014,4 hPa 0,0 l/m 0 min 0 min 103 W/m 19,3 km/h (3 Bft) 97,87 %
25.05.2021 19:58 10,6 C 10,6 C 8,4 C 91 % 1014,4 hPa 0,0 l/m 0 min 0 min 97 W/m 19,3 km/h (3 Bft) 97,87 %
25.05.2021 20:00 10,7 C 10,6 C 8,4 C 91 % 1014,4 hPa 0,0 l/m 0 min 0 min 87 W/m 6,4 km/h (2 Bft) 96,89 %
25.05.2021 20:04 10,7 C 10,6 C 8,4 C 91 % 1014,4 hPa 0,0 l/m 0 min 0 min 62 W/m 22,5 km/h (4 Bft) 100,00 %
25.05.2021 20:06 10,7 C 10,6 C 8,4 C 91 % 1014,4 hPa 0,0 l/m 0 min 0 min 59 W/m 29,0 km/h (5 Bft) 100,00 %
25.05.2021 20:08 10,7 C 10,6 C 8,4 C 91 % 1014,5 hPa 0,0 l/m 0 min 0 min 56 W/m 25,7 km/h (4 Bft) 100,00 %
25.05.2021 20:10 10,7 C 10,6 C 8,4 C 91 % 1014,5 hPa 0,0 l/m 0 min 0 min 60 W/m 16,1 km/h (3 Bft) 97,87 %
25.05.2021 20:12 10,7 C 10,6 C 8,4 C 91 % 1014,4 hPa 0,0 l/m 0 min 0 min 63 W/m 25,7 km/h (4 Bft) 97,87 %
25.05.2021 20:14 10,7 C 10,6 C 8,4 C 91 % 1014,4 hPa 0,0 l/m 0 min 0 min 57 W/m 16,1 km/h (3 Bft) 100,00 %
25.05.2021 20:16 10,7 C 10,6 C 8,4 C 91 % 1014,4 hPa 0,0 l/m 0 min 0 min 40 W/m 29,0 km/h (5 Bft) 100,00 %
25.05.2021 20:18 10,7 C 10,0 C 8,4 C 91 % 1014,4 hPa 0,0 l/m 0 min 0 min 30 W/m 22,5 km/h (4 Bft) 100,00 %
25.05.2021 20:20 10,7 C 10,0 C 8,4 C 91 % 1014,5 hPa 0,0 l/m 0 min 0 min 26 W/m 25,7 km/h (4 Bft) 100,00 %
25.05.2021 20:22 10,7 C 10,0 C 8,4 C 91 % 1014,4 hPa 0,0 l/m 0 min 0 min 24 W/m 19,3 km/h (3 Bft) 100,00 %
25.05.2021 20:24 10,7 C 10,0 C 8,4 C 91 % 1014,5 hPa 0,0 l/m 0 min 0 min 23 W/m 19,3 km/h (3 Bft) 100,00 %
25.05.2021 20:26 10,8 C 10,0 C 8,4 C 91 % 1014,5 hPa 0,0 l/m 0 min 0 min 25 W/m 12,9 km/h (3 Bft) 100,00 %
25.05.2021 20:28 10,8 C 10,0 C 8,4 C 91 % 1014,5 hPa 0,0 l/m 0 min 0 min 26 W/m 12,9 km/h (3 Bft) 97,87 %
25.05.2021 20:30 10,8 C 10,6 C 8,4 C 91 % 1014,5 hPa 0,0 l/m 0 min 0 min 25 W/m 12,9 km/h (3 Bft) 100,00 %
25.05.2021 20:32 10,8 C 10,6 C 8,4 C 91 % 1014,5 hPa 0,0 l/m 0 min 0 min 21 W/m 19,3 km/h (3 Bft) 100,00 %
25.05.2021 20:34 10,8 C 10,6 C 8,4 C 90 % 1014,5 hPa 0,0 l/m 0 min 0 min 17 W/m 6,4 km/h (2 Bft) 100,00 %
25.05.2021 20:36 10,8 C 10,6 C 8,4 C 91 % 1014,6 hPa 0,0 l/m 0 min 0 min 14 W/m 16,1 km/h (3 Bft) 100,00 %
25.05.2021 20:38 10,8 C 10,6 C 8,4 C 90 % 1014,6 hPa 0,0 l/m 0 min 0 min 13 W/m 12,9 km/h (3 Bft) 100,00 %
25.05.2021 20:40 10,9 C 10,6 C 8,4 C 90 % 1014,6 hPa 0,0 l/m 0 min 0 min 12 W/m 3,2 km/h (1 Bft) 100,00 %
25.05.2021 20:42 10,9 C 10,6 C 8,9 C 90 % 1014,6 hPa 0,0 l/m 0 min 0 min 11 W/m 9,7 km/h (2 Bft) 100,00 %
25.05.2021 20:44 10,9 C 10,6 C 8,9 C 90 % 1014,6 hPa 0,0 l/m 0 min 0 min 10 W/m 6,4 km/h (2 Bft) 100,00 %
25.05.2021 20:46 10,9 C 10,6 C 8,4 C 90 % 1014,6 hPa 0,0 l/m 0 min 0 min 7 W/m 16,1 km/h (3 Bft) 100,00 %
25.05.2021 20:48 10,9 C 10,6 C 8,9 C 90 % 1014,7 hPa 0,0 l/m 0 min 0 min 5 W/m 19,3 km/h (3 Bft) 100,00 %
25.05.2021 20:50 10,9 C 10,6 C 8,4 C 90 % 1014,7 hPa 0,0 l/m 0 min 0 min 5 W/m 16,1 km/h (3 Bft) 97,83 %
25.05.2021 20:52 10,9 C 10,6 C 8,4 C 90 % 1014,7 hPa 0,0 l/m 0 min 0 min 5 W/m 12,9 km/h (3 Bft) 100,00 %
25.05.2021 20:54 10,9 C 10,6 C 8,9 C 90 % 1014,7 hPa 0,0 l/m 0 min 0 min 5 W/m 16,1 km/h (3 Bft) 100,00 %
25.05.2021 20:56 10,9 C 10,6 C 8,9 C 90 % 1014,7 hPa 0,0 l/m 0 min 0 min 5 W/m 12,9 km/h (3 Bft) 100,00 %
25.05.2021 20:58 10,9 C 10,6 C 8,9 C 90 % 1014,7 hPa 0,0 l/m 0 min 0 min 5 W/m 16,1 km/h (3 Bft) 100,00 %
25.05.2021 21:00 10,9 C 10,6 C 8,9 C 90 % 1014,7 hPa 0,0 l/m 0 min 0 min 2 W/m 9,7 km/h (2 Bft) 100,00 %
25.05.2021 21:02 10,9 C 10,6 C 8,4 C 90 % 1014,7 hPa 0,0 l/m 0 min 0 min 0 W/m 9,7 km/h (2 Bft) 100,00 %
25.05.2021 21:04 10,9 C 10,6 C 8,4 C 90 % 1014,7 hPa 0,0 l/m 0 min 0 min 0 W/m 16,1 km/h (3 Bft) 100,00 %
25.05.2021 21:06 10,9 C 10,6 C 8,4 C 90 % 1014,8 hPa 0,0 l/m 0 min 0 min 0 W/m 12,9 km/h (3 Bft) 100,00 %
25.05.2021 21:08 10,9 C 10,6 C 8,4 C 90 % 1014,7 hPa 0,0 l/m 0 min 0 min 0 W/m 12,9 km/h (3 Bft) 100,00 %
25.05.2021 21:10 10,9 C 10,6 C 8,4 C 90 % 1014,7 hPa 0,0 l/m 0 min 0 min 0 W/m 12,9 km/h (3 Bft) 100,00 %
25.05.2021 21:12 10,9 C 10,0 C 8,4 C 90 % 1014,8 hPa 0,0 l/m 0 min 0 min 0 W/m 16,1 km/h (3 Bft) 100,00 %
25.05.2021 21:14 10,9 C 10,0 C 8,4 C 90 % 1014,8 hPa 0,0 l/m 0 min 0 min 0 W/m 9,7 km/h (2 Bft) 100,00 %
25.05.2021 21:16 10,9 C 10,6 C 8,4 C 90 % 1014,8 hPa 0,0 l/m 0 min 0 min 0 W/m 9,7 km/h (2 Bft) 100,00 %
25.05.2021 21:18 10,9 C 10,0 C 8,4 C 90 % 1014,9 hPa 0,0 l/m 0 min 0 min 0 W/m 6,4 km/h (2 Bft) 100,00 %
25.05.2021 21:20 10,9 C 10,0 C 8,4 C 90 % 1014,8 hPa 0,0 l/m 0 min 0 min 0 W/m 19,3 km/h (3 Bft) 100,00 %
25.05.2021 21:22 10,9 C 10,0 C 8,4 C 90 % 1014,8 hPa 0,0 l/m 0 min 0 min 0 W/m 12,9 km/h (3 Bft) 97,87 %
25.05.2021 21:24 10,8 C 10,0 C 8,4 C 90 % 1014,8 hPa 0,0 l/m 0 min 0 min 0 W/m 6,4 km/h (2 Bft) 100,00 %
25.05.2021 21:26 10,8 C 10,0 C 8,4 C 90 % 1014,9 hPa 0,0 l/m 0 min 0 min 0 W/m 19,3 km/h (3 Bft) 100,00 %
25.05.2021 21:28 10,8 C 10,0 C 8,4 C 89 % 1014,9 hPa 0,0 l/m 0 min 0 min 0 W/m 6,4 km/h (2 Bft) 100,00 %
25.05.2021 21:30 10,8 C 10,0 C 8,4 C 90 % 1014,9 hPa 0,0 l/m 0 min 0 min 0 W/m 25,7 km/h (4 Bft) 100,00 %
25.05.2021 21:32 10,8 C 10,0 C 8,4 C 89 % 1014,9 hPa 0,0 l/m 0 min 0 min 0 W/m 16,1 km/h (3 Bft) 100,00 %
25.05.2021 21:34 10,7 C 10,0 C 8,4 C 89 % 1014,9 hPa 0,0 l/m 0 min 0 min 0 W/m 12,9 km/h (3 Bft) 97,87 %
25.05.2021 21:36 10,7 C 10,0 C 8,4 C 89 % 1014,9 hPa 0,0 l/m 0 min 0 min 0 W/m 12,9 km/h (3 Bft) 100,00 %
25.05.2021 21:38 10,7 C 10,0 C 8,4 C 90 % 1014,9 hPa 0,0 l/m 0 min 0 min 0 W/m 6,4 km/h (2 Bft) 97,83 %
25.05.2021 21:40 10,7 C 10,0 C 8,4 C 90 % 1014,9 hPa 0,0 l/m 0 min 0 min 0 W/m 6,4 km/h (2 Bft) 100,00 %
25.05.2021 21:42 10,7 C 10,0 C 8,4 C 90 % 1014,9 hPa 0,0 l/m 0 min 0 min 0 W/m 16,1 km/h (3 Bft) 100,00 %
25.05.2021 21:44 10,6 C 10,0 C 8,4 C 90 % 1015,0 hPa 0,0 l/m 0 min 0 min 0 W/m 12,9 km/h (3 Bft) 100,00 %
25.05.2021 21:46 10,6 C 10,0 C 8,4 C 90 % 1015,0 hPa 0,0 l/m 0 min 0 min 0 W/m 9,7 km/h (2 Bft) 97,87 %
25.05.2021 21:48 10,6 C 10,0 C 8,4 C 89 % 1015,0 hPa 0,0 l/m 0 min 0 min 0 W/m 12,9 km/h (3 Bft) 93,48 %
25.05.2021 21:50 10,5 C 10,0 C 8,4 C 89 % 1015,0 hPa 0,0 l/m 0 min 0 min 0 W/m 12,9 km/h (3 Bft) 97,87 %
25.05.2021 21:52 10,5 C 10,0 C 8,4 C 89 % 1015,1 hPa 0,0 l/m 0 min 0 min 0 W/m 16,1 km/h (3 Bft) 93,62 %
25.05.2021 21:54 10,5 C 10,0 C 8,4 C 89 % 1015,0 hPa 0,0 l/m 0 min 0 min 0 W/m 6,4 km/h (2 Bft) 95,74 %
25.05.2021 21:56 10,5 C 10,0 C 8,4 C 89 % 1015,1 hPa 0,0 l/m 0 min 0 min 0 W/m 6,4 km/h (2 Bft) 95,74 %
25.05.2021 21:58 10,5 C 10,0 C 8,4 C 89 % 1015,1 hPa 0,0 l/m 0 min 0 min 0 W/m 3,2 km/h (1 Bft) 91,49 %
25.05.2021 22:00 10,4 C 9,4 C 8,4 C 89 % 1015,2 hPa 0,0 l/m 0 min 0 min 0 W/m 19,3 km/h (3 Bft) 97,83 %
25.05.2021 22:02 10,4 C 9,4 C 8,4 C 89 % 1015,2 hPa 0,0 l/m 0 min 0 min 0 W/m 19,3 km/h (3 Bft) 97,87 %
25.05.2021 22:04 10,3 C 9,4 C 7,8 C 89 % 1015,1 hPa 0,0 l/m 0 min 0 min 0 W/m 16,1 km/h (3 Bft) 97,87 %
25.05.2021 22:06 10,3 C 9,4 C 7,8 C 89 % 1015,2 hPa 0,0 l/m 0 min 0 min 0 W/m 12,9 km/h (3 Bft) 91,49 %
25.05.2021 22:08 10,3 C 9,4 C 7,8 C 89 % 1015,2 hPa 0,0 l/m 0 min 0 min 0 W/m 16,1 km/h (3 Bft) 95,74 %
25.05.2021 22:10 10,3 C 9,4 C 7,8 C 89 % 1015,2 hPa 0,0 l/m 0 min 0 min 0 W/m 9,7 km/h (2 Bft) 95,74 %
25.05.2021 22:12 10,3 C 9,4 C 7,8 C 89 % 1015,3 hPa 0,0 l/m 0 min 0 min 0 W/m 12,9 km/h (3 Bft) 95,65 %
25.05.2021 22:14 10,2 C 9,4 C 7,8 C 89 % 1015,2 hPa 0,0 l/m 0 min 0 min 0 W/m 9,7 km/h (2 Bft) 93,62 %
25.05.2021 22:16 10,2 C 9,4 C 7,8 C 89 % 1015,2 hPa 0,0 l/m 0 min 0 min 0 W/m 9,7 km/h (2 Bft) 95,74 %
25.05.2021 22:18 10,2 C 9,4 C 7,8 C 89 % 1015,2 hPa 0,0 l/m 0 min 0 min 0 W/m 9,7 km/h (2 Bft) 97,87 %
25.05.2021 22:20 10,2 C 9,4 C 7,8 C 89 % 1015,2 hPa 0,0 l/m 0 min 0 min 0 W/m 12,9 km/h (3 Bft) 95,74 %
25.05.2021 22:22 10,2 C 9,4 C 7,8 C 89 % 1015,2 hPa 0,0 l/m 0 min 0 min 0 W/m 12,9 km/h (3 Bft) 95,74 %
25.05.2021 22:24 10,1 C 9,4 C 7,8 C 89 % 1015,3 hPa 0,0 l/m 0 min 0 min 0 W/m 12,9 km/h (3 Bft) 93,48 %
25.05.2021 22:26 10,1 C 9,4 C 7,8 C 89 % 1015,3 hPa 0,0 l/m 0 min 0 min 0 W/m 12,9 km/h (3 Bft) 93,62 %
25.05.2021 22:28 10,1 C 9,4 C 7,8 C 90 % 1015,2 hPa 0,0 l/m 0 min 0 min 0 W/m 12,9 km/h (3 Bft) 95,74 %
25.05.2021 22:30 10,1 C 9,4 C 7,8 C 90 % 1015,3 hPa 0,0 l/m 0 min 0 min 0 W/m 12,9 km/h (3 Bft) 95,74 %
25.05.2021 22:32 10,1 C 9,4 C 7,8 C 90 % 1015,2 hPa 0,0 l/m 0 min 0 min 0 W/m 3,2 km/h (1 Bft) 95,74 %
25.05.2021 22:34 10,1 C 9,4 C 7,8 C 90 % 1015,3 hPa 0,0 l/m 0 min 0 min 0 W/m 12,9 km/h (3 Bft) 93,48 %
25.05.2021 22:36 10,1 C 9,4 C 7,8 C 90 % 1015,3 hPa 0,0 l/m 0 min 0 min 0 W/m 16,1 km/h (3 Bft) 97,87 %
25.05.2021 22:38 10,1 C 9,4 C 7,8 C 90 % 1015,2 hPa 0,0 l/m 0 min 0 min 0 W/m 9,7 km/h (2 Bft) 93,62 %
25.05.2021 22:40 10,1 C 9,4 C 7,8 C 90 % 1015,3 hPa 0,0 l/m 0 min 0 min 0 W/m 12,9 km/h (3 Bft) 97,87 %
25.05.2021 22:42 10,1 C 9,4 C 7,8 C 90 % 1015,3 hPa 0,0 l/m 0 min 0 min 0 W/m 6,4 km/h (2 Bft) 100,00 %
25.05.2021 22:44 10,1 C 9,4 C 7,8 C 90 % 1015,3 hPa 0,0 l/m 0 min 0 min 0 W/m 12,9 km/h (3 Bft) 97,87 %
25.05.2021 22:46 10,1 C 9,4 C 7,8 C 90 % 1015,2 hPa 0,0 l/m 0 min 0 min 0 W/m 6,4 km/h (2 Bft) 100,00 %
25.05.2021 22:48 10,1 C 9,4 C 7,8 C 90 % 1015,2 hPa 0,0 l/m 0 min 0 min 0 W/m 16,1 km/h (3 Bft) 100,00 %
25.05.2021 22:50 10,1 C 9,4 C 7,8 C 90 % 1015,3 hPa 0,0 l/m 0 min 0 min 0 W/m 9,7 km/h (2 Bft) 100,00 %
25.05.2021 22:52 10,1 C 9,4 C 7,8 C 90 % 1015,2 hPa 0,0 l/m 0 min 0 min 0 W/m 6,4 km/h (2 Bft) 100,00 %
25.05.2021 22:54 10,1 C 9,4 C 7,8 C 90 % 1015,2 hPa 0,0 l/m 0 min 0 min 0 W/m 9,7 km/h (2 Bft) 95,74 %
25.05.2021 22:56 10,1 C 9,4 C 7,8 C 90 % 1015,2 hPa 0,0 l/m 0 min 0 min 0 W/m 16,1 km/h (3 Bft) 100,00 %
25.05.2021 22:58 10,0 C 9,4 C 7,8 C 90 % 1015,2 hPa 0,0 l/m 0 min 0 min 0 W/m 16,1 km/h (3 Bft) 100,00 %
25.05.2021 23:00 10,0 C 9,4 C 7,8 C 90 % 1015,2 hPa 0,0 l/m 0 min 0 min 0 W/m 9,7 km/h (2 Bft) 100,00 %
25.05.2021 23:02 10,0 C 9,4 C 7,8 C 90 % 1015,2 hPa 0,0 l/m 0 min 0 min 0 W/m 16,1 km/h (3 Bft) 100,00 %
25.05.2021 23:04 10,0 C 9,4 C 7,8 C 90 % 1015,2 hPa 0,0 l/m 0 min 0 min 0 W/m 12,9 km/h (3 Bft) 100,00 %
25.05.2021 23:06 10,0 C 9,4 C 7,8 C 90 % 1015,2 hPa 0,0 l/m 0 min 0 min 0 W/m 9,7 km/h (2 Bft) 100,00 %
25.05.2021 23:08 10,0 C 9,4 C 7,8 C 90 % 1015,2 hPa 0,0 l/m 0 min 0 min 0 W/m 9,7 km/h (2 Bft) 100,00 %
25.05.2021 23:10 10,0 C 9,4 C 7,8 C 91 % 1015,2 hPa 0,0 l/m 0 min 0 min 0 W/m 12,9 km/h (3 Bft) 100,00 %
25.05.2021 23:12 10,0 C 9,4 C 7,8 C 91 % 1015,2 hPa 0,0 l/m 0 min 0 min 0 W/m 19,3 km/h (3 Bft) 100,00 %
25.05.2021 23:14 9,9 C 9,4 C 7,8 C 91 % 1015,2 hPa 0,0 l/m 0 min 0 min 0 W/m 25,7 km/h (4 Bft) 100,00 %
25.05.2021 23:16 9,9 C 9,4 C 7,8 C 91 % 1015,1 hPa 0,0 l/m 0 min 0 min 0 W/m 9,7 km/h (2 Bft) 97,87 %
25.05.2021 23:18 9,9 C 9,4 C 7,8 C 91 % 1015,1 hPa 0,0 l/m 0 min 0 min 0 W/m 9,7 km/h (2 Bft) 97,92 %
25.05.2021 23:20 9,9 C 9,4 C 7,8 C 91 % 1015,2 hPa 0,0 l/m 0 min 0 min 0 W/m 16,1 km/h (3 Bft) 97,87 %
25.05.2021 23:22 9,9 C 9,4 C 7,8 C 91 % 1015,1 hPa 0,0 l/m 0 min 0 min 0 W/m 19,3 km/h (3 Bft) 97,30 %
25.05.2021 23:24 9,9 C 9,4 C 7,8 C 91 % 1015,1 hPa 0,0 l/m 0 min 0 min 0 W/m 12,9 km/h (3 Bft) 95,65 %
25.05.2021 23:26 9,9 C 9,4 C 7,8 C 92 % 1015,1 hPa 0,0 l/m 0 min 0 min 0 W/m 9,7 km/h (2 Bft) 97,87 %
25.05.2021 23:28 10,0 C 9,4 C 7,8 C 91 % 1015,1 hPa 0,0 l/m 0 min 0 min 0 W/m 12,9 km/h (3 Bft) 97,87 %
25.05.2021 23:30 9,9 C 9,4 C 7,8 C 92 % 1015,1 hPa 0,0 l/m 0 min 0 min 0 W/m 16,1 km/h (3 Bft) 97,87 %
25.05.2021 23:32 10,0 C 9,4 C 7,8 C 92 % 1015,1 hPa 0,0 l/m 0 min 0 min 0 W/m 19,3 km/h (3 Bft) 93,62 %
25.05.2021 23:34 10,0 C 9,4 C 7,8 C 91 % 1015,0 hPa 0,0 l/m 0 min 0 min 0 W/m 19,3 km/h (3 Bft) 97,87 %
25.05.2021 23:36 10,0 C 9,4 C 7,8 C 91 % 1015,1 hPa 0,0 l/m 0 min 0 min 0 W/m 9,7 km/h (2 Bft) 97,83 %
25.05.2021 23:38 10,0 C 9,4 C 7,8 C 91 % 1015,1 hPa 0,0 l/m 0 min 0 min 0 W/m 6,4 km/h (2 Bft) 97,87 %
25.05.2021 23:40 9,9 C 9,4 C 7,8 C 92 % 1015,1 hPa 0,0 l/m 0 min 0 min 0 W/m 16,1 km/h (3 Bft) 95,74 %
25.05.2021 23:42 9,9 C 9,4 C 7,8 C 92 % 1015,1 hPa 0,0 l/m 0 min 0 min 0 W/m 12,9 km/h (3 Bft) 97,87 %
25.05.2021 23:44 9,9 C 9,4 C 7,8 C 91 % 1015,1 hPa 0,0 l/m 0 min 0 min 0 W/m 16,1 km/h (3 Bft) 97,87 %
25.05.2021 23:46 9,9 C 9,4 C 7,8 C 91 % 1015,1 hPa 0,0 l/m 0 min 0 min 0 W/m 22,5 km/h (4 Bft) 97,87 %
25.05.2021 23:48 9,9 C 9,4 C 7,8 C 91 % 1015,1 hPa 0,0 l/m 0 min 0 min 0 W/m 12,9 km/h (3 Bft) 97,83 %
25.05.2021 23:50 9,9 C 9,4 C 7,8 C 91 % 1015,1 hPa 0,0 l/m 0 min 0 min 0 W/m 12,9 km/h (3 Bft) 97,87 %
25.05.2021 23:52 9,9 C 9,4 C 7,8 C 91 % 1015,0 hPa 0,0 l/m 0 min 0 min 0 W/m 6,4 km/h (2 Bft) 97,87 %
25.05.2021 23:54 9,9 C 9,4 C 7,8 C 91 % 1015,2 hPa 0,0 l/m 0 min 0 min 0 W/m 12,9 km/h (3 Bft) 97,87 %
25.05.2021 23:56 9,9 C 9,4 C 7,8 C 91 % 1015,1 hPa 0,0 l/m 0 min 0 min 0 W/m 6,4 km/h (2 Bft) 97,87 %
25.05.2021 23:58 9,9 C 9,4 C 7,8 C 91 % 1015,1 hPa 0,0 l/m 0 min 0 min 0 W/m 12,9 km/h (3 Bft) 95,74 %
_ Min-Zeit 04:30 04:20 04:28 15:46 00:02 - - - - 00:48 01:48
Minimum _ 8,2 C 7,2 C 5,6 C 77 % 1008,9 hPa - - - - 3,2 km/h (1 Bft) 47,50 %
_ Max-Zeit 13:52 14:52 13:44 07:50 22:12 06:54 12:08 08:51 13:50 15:02 01:02
Maximum _ 14,0 C 16,1 C 17,3 C 95 % 1015,3 hPa 0,2 l/m 4 min 5 min 1146 W/m 48,3 km/h
O-SO (6 Bft)
100,00 %
Durchschnitt _ 10,2 C 10,0 C 7,9 C 88 % 1012,3 hPa #3,2 l/m #3:22 h #4:46 h 237 W/m 17,7 km/h (3 Bft) 97,19 %
© 2021 W. Hausmann